GFSMW_sfc_30mbdewp_057.txt.gz
Dewpoint
42 42 46 49 55 59 59 58 56 57 57 56 55 56 54 53 51 49 49 48 47 47 46 46 44 43 39 39 39 37 36 35 36 32 31 31 32 28 30 32 32 32 30
46 48 49 52 58 60 59 58 56 57 56 55 56 53 53 51 49 48 48 47 46 46 45 43 41 39 37 38 37 37 35 35 35 31 32 29 29 31 30 32 33 33 33
47 50 52 59 60 59 59 57 57 57 57 57 58 53 51 49 47 46 46 46 46 44 41 40 39 38 37 36 36 36 36 33 34 35 31 30 29 31 32 31 33 33 31
50 52 56 58 59 59 59 59 58 57 58 58 53 50 47 44 45 46 47 46 44 42 40 38 36 37 38 37 37 37 36 37 35 35 34 33 33 31 30 32 32 32 31
50 54 55 56 58 58 58 58 57 57 57 52 49 47 45 45 47 47 46 46 44 43 40 38 37 37 39 39 39 40 36 36 35 35 35 34 34 33 32 30 31 32 31
51 55 56 56 56 57 57 57 56 50 47 48 47 46 46 44 40 39 38 38 35 36 37 37 37 36 35 35 36 37 38 38 38 37 36 35 34 34 33 32 31 30 30
50 53 54 54 54 53 52 49 46 46 46 47 44 40 39 38 37 38 36 35 34 36 37 36 35 35 35 34 34 34 36 38 37 37 37 37 36 36 35 34 33 30 28
46 48 48 48 47 47 46 45 45 46 47 44 41 40 40 39 37 36 37 36 37 36 31 29 30 30 30 30 31 33 33 36 39 37 37 36 37 38 36 33 33 28 23
43 44 45 47 47 47 46 46 45 46 46 42 39 38 37 36 36 38 37 38 33 29 28 29 28 29 29 30 31 31 31 35 35 35 36 35 35 36 35 31 27 24 22
41 41 44 46 47 47 47 47 46 45 41 39 38 37 35 35 38 37 36 32 29 28 28 28 29 29 29 31 33 34 34 33 33 33 32 33 33 32 29 27 26 26 24
40 40 43 46 46 47 47 46 41 38 38 35 35 34 35 38 35 32 29 27 27 27 28 29 29 29 31 34 34 33 33 32 32 32 32 31 30 29 28 28 27 24 20
40 40 42 45 46 47 47 40 38 37 36 35 35 37 39 36 30 27 27 28 27 29 29 29 30 30 34 32 31 32 31 31 29 30 30 29 29 27 28 22 20 17 17
40 40 44 46 46 46 43 39 37 35 37 38 36 36 37 27 25 27 28 27 27 28 29 29 29 31 32 30 30 32 31 29 29 30 29 29 27 26 20 17 16 16 16
40 41 45 45 45 44 39 37 37 36 35 34 34 30 23 26 27 27 27 28 29 29 29 29 31 31 31 31 32 30 29 30 30 29 29 28 24 17 16 15 14 16 18
41 43 43 43 43 40 37 35 35 32 31 28 22 23 23 23 23 25 27 28 29 30 29 30 31 32 32 31 30 31 29 27 27 26 25 21 20 20 17 15 18 19 17
41 41 41 40 39 38 35 34 33 31 24 20 20 21 21 21 22 24 25 26 27 29 30 31 31 31 31 30 28 26 27 30 29 23 23 21 19 19 21 22 21 20 17
39 39 39 39 38 36 34 31 28 23 20 19 20 19 20 22 23 24 25 26 28 31 30 30 29 29 31 30 30 31 28 26 26 24 22 21 22 21 19 19 19 18 17
38 38 38 36 34 31 28 24 22 21 19 19 18 20 20 21 24 26 26 29 29 28 28 29 28 30 32 32 32 29 30 24 24 23 22 21 21 20 19 18 17 17 17
38 36 31 26 24 23 22 21 20 19 19 19 18 19 23 25 25 26 27 28 27 26 26 29 28 29 32 33 32 30 23 24 25 24 22 24 21 21 20 18 16 16 17
33 29 25 24 24 25 24 23 23 23 23 21 23 23 26 27 26 26 27 27 27 26 28 29 29 29 30 33 31 27 23 24 23 24 24 22 19 20 20 18 16 15 15
24 24 25 25 26 26 24 20 20 21 23 23 25 25 26 24 25 27 27 27 28 28 29 29 29 29 29 30 31 28 26 23 23 24 24 22 21 21 21 20 17 16 17
26 27 27 27 25 24 22 23 29 27 23 24 25 25 25 26 25 25 26 26 27 27 27 28 28 29 29 29 32 31 28 26 24 23 23 23 24 23 22 21 21 19 19
29 29 28 27 26 25 25 25 24 25 24 24 24 25 26 26 26 25 25 25 26 26 26 25 25 26 28 29 30 31 30 28 26 24 23 24 24 23 24 24 22 21 19
31 31 29 27 26 26 25 23 25 25 24 23 24 25 25 26 26 26 25 25 24 23 25 28 28 29 30 28 26 27 29 30 27 27 25 24 25 24 22 21 21 20 18
31 29 28 29 27 25 23 24 24 24 22 22 24 26 26 27 27 27 26 25 25 26 25 25 25 25 26 26 26 26 28 29 28 27 26 25 22 20 21 22 20 19 17
33 31 29 25 24 24 22 21 20 20 22 25 25 25 26 27 27 26 26 27 27 27 28 28 28 27 26 26 26 27 28 29 29 25 22 20 19 19 20 22 21 19 17

GFSMW_sfc_30mbdewp_060.txt.gz
Dewpoint
49 53 53 51 53 56 57 58 57 56 56 55 55 54 52 53 50 50 49 48 48 48 46 45 42 40 38 38 37 37 35 34 35 31 33 32 31 31 31 33 33 32 32
43 45 48 53 57 57 58 57 56 56 56 55 55 55 53 52 49 49 49 46 47 46 44 42 40 38 38 37 36 36 35 35 35 32 32 29 30 31 31 32 33 32 32
45 47 51 57 58 58 57 56 56 56 56 55 55 53 50 49 48 47 46 46 45 44 42 40 38 37 37 36 36 36 35 33 35 35 32 30 29 31 32 31 33 33 32
48 54 56 58 58 58 57 57 56 56 56 56 56 51 48 46 46 46 46 46 44 42 40 39 38 38 39 37 38 38 37 37 35 35 34 34 33 31 30 32 32 33 32
49 55 57 58 58 58 58 57 57 57 57 57 56 51 47 46 46 47 46 46 44 43 41 39 38 39 38 37 36 37 36 37 35 34 35 34 34 34 32 32 31 33 31
51 55 57 58 58 58 58 58 57 57 57 56 52 49 46 46 46 46 44 41 38 38 38 37 37 36 35 35 35 35 35 36 38 37 36 35 34 33 33 33 32 32 32
53 55 56 57 57 57 57 57 56 52 50 48 48 46 44 43 42 40 37 35 36 37 36 35 32 32 32 31 31 31 32 33 35 37 37 37 36 36 36 35 35 33 30
54 55 55 55 55 55 55 53 49 47 45 42 41 39 39 39 39 38 38 38 37 34 34 31 30 29 29 30 31 32 32 34 37 37 37 36 36 37 37 36 34 32 27
53 53 53 52 51 50 49 48 46 47 43 40 39 38 38 37 37 39 39 40 38 33 30 29 28 29 29 32 33 33 34 33 34 35 35 36 36 36 36 35 34 30 26
49 50 50 49 47 46 46 46 46 45 41 39 38 37 36 38 38 39 40 37 31 29 28 28 28 29 31 33 33 33 33 32 32 32 31 32 32 31 29 28 28 28 30
45 47 48 47 47 47 46 45 45 43 39 38 37 35 37 39 38 35 33 30 28 28 28 29 29 29 32 34 33 32 32 31 31 31 31 32 31 29 29 31 31 27 20
43 44 46 47 47 47 46 44 42 39 37 36 36 38 38 39 35 30 29 29 28 29 29 29 29 30 33 33 31 30 31 30 29 28 30 30 30 28 26 22 19 17 17
41 42 45 46 46 47 42 39 38 36 37 38 37 39 41 28 27 28 28 27 27 28 29 30 29 30 33 32 30 31 31 31 29 28 30 29 28 27 22 18 17 16 16
42 41 44 45 47 41 38 37 38 40 41 39 38 33 27 28 28 28 28 29 30 29 30 30 31 32 32 31 31 31 30 29 30 30 30 29 27 24 18 17 15 16 18
41 43 46 46 40 38 38 40 40 40 37 31 26 26 25 25 24 24 24 26 27 28 30 32 32 32 32 32 32 31 31 28 27 28 28 24 21 20 19 16 17 18 17
43 44 45 44 42 41 41 40 37 31 24 23 23 24 22 22 23 24 25 26 27 29 31 31 32 31 31 31 30 29 27 29 30 30 29 24 22 23 21 23 21 19 16
43 44 44 43 42 40 38 34 27 23 22 22 22 23 23 22 24 25 26 26 29 30 28 28 30 30 30 32 30 29 30 30 27 27 24 22 22 23 22 21 20 18 19
41 41 40 38 36 33 28 24 22 22 21 21 21 21 23 25 26 25 26 27 30 28 27 27 29 29 30 32 31 32 28 28 27 24 23 22 22 21 20 19 18 17 17
36 33 30 28 25 23 22 22 21 21 21 20 21 23 25 25 25 26 27 28 28 27 26 27 28 28 29 32 33 32 30 24 23 25 24 22 23 22 22 19 17 18 16
25 24 24 24 23 23 22 22 23 24 22 22 30 28 25 26 27 27 27 27 28 28 28 28 29 29 28 30 33 33 28 23 23 25 24 24 21 22 21 20 18 16 15
25 26 25 25 24 22 21 21 22 24 25 26 26 26 26 26 26 27 27 26 26 26 27 29 29 29 29 28 30 33 28 25 26 25 23 24 23 22 22 22 20 17 17
26 25 24 23 23 24 29 31 31 25 25 24 25 25 26 26 26 26 25 26 25 25 25 25 25 28 28 28 29 30 31 29 27 25 25 24 24 24 24 24 23 23 22
26 26 26 27 28 27 26 24 24 24 24 25 25 25 25 26 26 26 25 25 25 24 23 23 24 25 27 28 29 30 31 32 29 27 25 25 24 24 25 25 25 23 22
30 28 27 27 27 26 24 23 24 25 25 24 24 24 24 25 26 26 26 25 25 24 24 24 24 25 26 28 28 27 27 28 31 28 27 26 27 24 24 23 22 21 21
29 29 29 27 25 24 24 23 23 25 24 24 23 23 25 26 26 26 26 26 26 25 24 24 25 24 24 24 27 27 26 25 27 27 27 25 24 24 23 21 21 22 21
30 29 29 25 22 22 22 24 26 26 25 25 25 25 26 26 26 26 27 28 28 27 27 27 27 27 27 28 28 28 28 28 29 27 23 23 22 21 20 19 19 20 22

GFSMW_sfc_30mbdewp_063.txt.gz
Dewpoint
49 52 55 55 52 53 56 58 56 56 55 54 53 52 51 52 49 49 49 49 49 48 45 43 41 39 38 37 35 36 34 34 35 31 33 32 32 31 32 33 32 31 31
48 50 53 53 52 54 56 57 56 56 55 54 55 54 52 51 49 49 48 48 48 46 44 41 39 38 37 36 36 36 35 35 35 32 32 30 31 31 32 32 33 32 32
48 49 52 52 54 54 56 57 56 56 55 55 54 52 51 49 48 48 47 47 46 44 42 41 39 38 37 36 36 36 35 34 35 35 32 30 29 31 32 32 33 32 32
46 46 48 53 54 55 57 57 56 56 56 55 54 52 50 47 47 47 46 46 46 44 42 40 39 38 39 37 38 38 37 36 34 35 35 34 32 31 30 32 32 33 33
43 44 48 54 56 56 56 56 57 56 56 56 55 51 49 47 47 47 46 46 44 42 40 39 39 39 37 36 36 36 36 37 35 35 34 34 34 33 32 31 32 33 33
47 50 51 56 57 57 57 56 57 56 56 56 55 52 49 46 46 46 45 43 41 40 38 37 36 36 35 33 33 33 33 34 36 37 36 35 34 33 32 32 32 32 33
50 55 55 56 57 57 57 57 56 56 56 56 54 53 49 46 46 45 42 37 37 37 36 37 38 32 30 30 30 30 31 31 32 34 35 37 36 36 35 34 34 32 32
52 55 56 57 57 57 57 57 56 54 54 53 51 47 45 44 43 41 38 38 38 36 39 39 32 29 29 30 31 32 33 35 35 35 35 35 36 36 36 35 33 32 30
52 54 56 56 57 56 56 55 53 50 46 46 44 42 41 40 38 40 41 41 40 41 38 32 29 29 30 32 33 32 32 32 32 31 32 32 34 35 35 35 35 33 28
53 54 55 55 55 55 54 51 49 45 42 41 40 39 39 39 40 43 43 43 41 36 31 30 30 30 31 33 33 33 33 31 31 31 31 31 32 31 30 30 30 31 30
52 53 53 53 52 51 50 49 46 43 40 39 38 37 39 40 40 39 39 39 35 30 30 30 29 29 31 33 33 32 32 30 30 30 29 29 32 30 30 31 32 32 30
50 51 52 50 48 48 47 47 46 42 40 39 37 39 40 39 40 42 41 32 29 29 29 29 29 29 31 32 32 30 30 30 29 29 28 30 31 30 28 26 23 21 18
47 49 50 49 47 46 46 44 41 38 38 38 41 41 42 42 37 31 30 29 28 28 28 29 29 29 30 32 32 30 30 31 31 30 28 29 29 28 26 22 19 17 16
44 46 47 47 47 45 41 38 37 39 40 40 42 41 35 32 29 28 28 28 29 29 30 30 31 32 32 33 31 31 31 30 30 30 30 30 29 28 27 22 17 16 16
43 42 45 46 44 41 39 39 41 42 42 41 37 35 31 28 27 26 24 25 28 28 30 31 31 32 33 32 32 31 31 30 29 27 28 29 27 26 22 18 16 16 18
43 43 46 44 41 40 41 41 42 41 38 33 30 28 25 24 23 24 25 27 27 30 29 29 30 31 32 31 31 31 29 28 28 29 30 31 28 26 26 22 20 19 17
44 45 44 42 41 41 41 41 38 33 28 27 25 25 23 23 25 26 26 26 27 30 28 28 27 27 29 30 31 31 29 28 29 29 28 26 22 22 23 24 23 22 20
44 44 43 41 41 40 34 29 26 25 24 23 22 23 24 26 26 26 26 27 28 29 28 27 27 28 28 30 31 31 30 29 28 28 26 23 21 22 22 20 19 18 18
36 35 34 32 29 26 23 22 22 22 21 22 23 24 27 25 26 25 27 27 27 27 27 28 28 28 28 30 31 31 31 29 29 26 25 24 23 23 25 21 19 19 19
26 26 24 23 22 21 22 22 22 22 23 27 30 28 26 25 25 27 26 27 27 26 26 26 28 29 29 29 30 32 31 29 28 25 25 26 25 23 24 22 19 18 18
24 24 23 22 22 22 22 22 24 25 26 27 27 26 26 26 26 26 27 26 26 26 25 25 26 28 29 28 29 30 31 29 28 25 26 26 25 25 24 23 20 20 20
23 22 21 22 23 27 30 31 27 26 27 25 25 25 25 26 26 26 26 26 26 25 24 24 24 25 25 27 28 29 30 31 28 27 27 26 26 26 25 24 24 25 24
23 25 27 29 27 25 26 24 25 24 23 24 24 25 25 25 26 26 25 25 25 25 24 24 24 24 25 25 27 29 30 31 31 29 28 28 27 29 26 26 26 26 24
27 27 28 27 26 24 24 24 25 26 25 25 25 25 25 24 24 25 26 25 25 25 25 25 25 25 24 25 26 27 28 29 30 30 30 29 28 28 27 25 25 24 22
29 28 27 25 24 24 25 27 29 29 28 27 27 27 27 27 27 27 27 27 27 26 26 26 26 25 24 24 25 25 25 25 26 26 27 26 25 24 24 23 23 23 21
29 28 24 24 24 26 29 30 30 28 26 25 25 27 27 27 28 28 27 28 29 29 29 29 28 28 27 27 27 28 29 29 29 27 26 24 23 22 22 22 21 21 20

GFSMW_sfc_30mbdewp_069.txt.gz
Dewpoint
51 52 53 54 54 55 55 57 57 58 57 57 57 57 57 57 57 55 52 50 49 50 49 46 45 43 41 39 40 38 38 37 37 35 34 34 34 35 34 34 33 33 33
52 52 54 55 55 54 55 57 57 57 57 56 56 56 55 54 54 52 50 49 49 49 47 45 43 42 40 40 40 39 37 37 38 34 33 28 28 32 34 34 34 35 33
50 52 53 55 56 56 56 57 57 57 57 56 55 54 53 52 51 50 49 49 48 47 46 44 43 42 40 39 40 40 38 36 38 38 32 24 19 27 33 35 34 35 34
52 51 52 53 55 55 56 56 57 56 56 56 55 53 52 50 49 49 49 49 49 47 45 43 43 41 40 40 40 40 39 38 34 37 37 37 34 22 21 31 33 35 35
52 51 50 51 54 55 55 57 57 56 56 56 55 54 53 52 51 49 48 48 47 46 43 43 42 42 41 42 42 40 39 37 32 30 30 33 33 35 31 25 28 31 33
51 51 50 50 53 55 56 57 56 56 56 56 55 54 53 52 49 47 47 46 45 44 43 41 42 41 40 39 38 37 36 34 34 33 33 31 28 28 31 29 26 27 30
49 51 50 50 52 54 55 56 56 56 56 57 56 55 54 52 50 48 47 46 44 42 41 41 40 39 37 36 34 34 34 34 32 33 32 35 35 33 30 29 27 27 27
46 48 49 50 52 54 55 56 56 55 56 57 56 56 55 52 50 49 47 46 44 42 41 41 41 40 40 36 34 34 33 34 36 36 37 34 32 32 30 28 28 29 25
43 45 47 50 52 54 55 56 56 56 56 56 57 56 55 53 50 49 47 46 44 41 43 45 43 43 37 33 34 33 33 36 36 36 36 33 31 31 30 31 31 30 25
43 45 48 51 53 54 55 56 56 56 56 57 56 56 54 54 51 48 45 43 42 42 45 45 44 39 33 34 34 34 34 34 35 34 33 32 31 30 30 29 30 29 27
45 47 51 52 53 55 55 56 56 56 55 55 55 54 52 50 47 45 43 43 44 44 45 44 39 33 33 33 34 34 34 34 34 33 32 31 31 29 29 30 30 28 29
47 50 52 54 54 55 55 56 55 54 53 51 50 48 46 45 45 44 44 44 44 46 42 38 34 32 32 32 33 33 33 33 33 32 32 31 29 30 30 30 29 28 29
47 51 53 54 54 55 55 55 53 49 45 45 45 45 45 43 43 43 44 45 43 40 36 33 32 32 32 32 33 33 34 33 33 32 32 31 30 29 28 29 28 27 27
46 49 52 53 53 54 53 51 47 44 43 44 44 43 42 43 44 44 41 37 34 33 32 32 32 33 32 32 33 33 33 33 32 33 32 31 30 28 28 29 29 28 26
42 48 50 51 50 50 49 48 45 45 45 44 43 43 43 42 39 36 33 33 33 30 29 30 32 32 32 30 31 32 33 33 33 33 32 31 31 31 30 27 27 27 26
35 45 49 49 47 47 46 45 45 45 45 44 42 41 40 36 32 30 30 32 29 30 31 30 31 31 28 28 29 30 30 31 31 30 30 30 30 31 32 33 32 30 25
42 44 47 47 46 45 44 45 44 44 43 42 39 34 29 28 30 30 29 27 28 32 31 31 31 30 30 28 28 29 29 29 29 30 30 28 28 30 28 28 25 26 26
44 44 44 44 44 44 44 43 40 37 34 31 28 27 29 29 28 28 30 31 29 29 29 30 30 30 28 27 27 29 29 30 30 30 30 29 28 28 28 25 23 22 23
39 40 40 39 39 38 37 35 33 28 26 25 27 30 29 27 31 32 29 29 29 29 29 28 29 28 27 28 27 29 28 28 29 30 30 29 28 28 28 25 25 24 23
33 32 32 32 32 32 32 29 24 24 25 28 29 29 29 29 28 28 28 28 28 27 28 27 28 28 27 28 28 29 29 30 28 29 29 29 29 29 27 27 27 27 24
28 28 28 28 27 27 26 26 29 30 31 31 29 28 27 26 27 27 28 27 27 28 29 29 28 28 28 28 28 29 29 29 28 26 26 28 29 28 29 28 28 28 26
25 25 25 24 25 26 27 27 28 28 27 26 26 27 27 26 27 27 27 27 27 27 29 29 28 27 27 28 28 28 29 29 30 30 28 27 28 29 29 29 29 29 26
26 27 27 28 28 27 26 25 25 26 27 27 27 26 24 23 22 21 20 20 19 20 23 24 24 26 26 25 27 28 28 28 29 30 32 31 28 29 29 30 31 30 29
26 25 25 26 27 28 28 27 27 27 24 23 22 20 19 18 18 18 18 20 21 21 21 21 22 24 22 22 23 26 26 27 29 28 30 31 30 30 30 29 29 30 29
25 24 26 27 26 25 24 22 22 21 19 18 17 17 18 19 19 18 20 21 21 22 21 21 22 23 23 24 26 28 29 29 29 31 30 29 28 27 27 27 27 27 26
25 27 27 24 21 21 21 19 18 16 14 14 15 18 18 19 19 19 19 20 20 20 20 22 23 22 22 22 24 25 27 30 31 29 28 26 27 27 26 26 25 25 25

GFSMW_sfc_30mbdewp_072.txt.gz
Dewpoint
49 50 51 51 51 51 51 54 57 60 60 57 54 55 58 60 60 60 59 57 52 53 51 48 47 44 42 39 41 40 40 38 37 36 35 34 35 34 32 32 30 30 30
47 48 49 51 51 52 53 55 57 59 59 54 52 56 58 59 59 58 56 54 52 52 49 47 45 44 42 41 41 40 39 38 38 36 34 29 28 32 32 31 30 31 32
48 48 49 50 51 51 53 53 55 56 58 56 53 56 58 57 57 56 53 51 51 49 47 47 45 45 41 40 41 41 41 39 39 38 31 22 19 20 24 30 31 31 32
44 48 48 49 51 52 51 52 53 55 58 58 55 55 54 54 55 54 52 49 49 48 47 46 46 44 40 41 41 42 41 40 36 35 33 32 28 18 17 20 26 30 31
46 44 47 48 50 52 53 55 55 57 58 59 57 56 55 55 54 53 51 49 49 48 46 46 45 43 41 42 42 42 41 38 33 27 25 26 27 27 27 27 25 25 25
47 48 47 47 49 53 56 56 56 57 57 58 58 57 56 55 53 52 51 49 48 48 47 45 45 44 42 42 43 41 40 35 31 27 26 24 23 23 24 23 22 21 20
46 47 48 49 48 52 56 56 56 55 56 57 57 57 57 56 53 52 50 48 47 47 46 45 45 42 41 41 40 40 34 32 31 30 26 28 28 28 27 25 24 21 20
40 46 48 49 49 51 54 55 55 55 56 57 57 57 57 56 54 53 50 48 47 46 46 45 43 42 40 41 41 36 33 33 33 32 31 29 29 28 27 25 23 22 22
38 42 46 49 51 52 54 54 54 54 55 57 57 57 57 56 55 54 53 51 49 47 46 44 44 44 44 43 37 34 33 33 33 33 33 32 29 29 29 27 24 22 22
39 41 43 47 50 52 53 54 53 53 55 56 57 56 57 57 55 55 53 51 48 45 45 45 45 45 43 37 35 33 33 32 33 32 32 31 29 29 29 27 26 24 22
40 41 43 45 49 51 53 54 53 52 54 56 56 56 56 57 56 54 52 49 46 44 45 45 47 47 38 34 34 33 31 32 32 31 32 31 31 30 29 27 26 24 23
42 43 45 47 49 51 53 53 53 54 54 55 56 57 55 53 49 48 47 47 46 46 47 47 44 37 33 33 32 31 29 30 30 30 31 31 29 29 29 27 26 24 23
40 46 48 50 50 51 52 52 55 55 55 55 54 50 48 49 48 47 47 47 47 47 44 40 35 33 32 30 31 31 30 31 30 30 30 30 29 29 27 26 24 23 22
35 42 47 50 52 53 53 54 55 54 51 51 50 49 48 47 46 46 45 44 42 39 36 37 33 31 30 30 30 29 29 29 29 29 30 30 29 28 27 25 24 23 23
31 37 44 49 52 54 54 54 52 49 48 48 46 45 45 44 43 42 42 40 36 37 37 31 29 31 31 29 27 26 26 27 26 27 29 30 30 31 30 26 24 23 23
31 34 43 50 51 52 52 50 49 48 47 46 45 44 42 41 40 39 37 36 35 34 29 31 34 32 28 26 28 28 26 24 24 25 25 25 27 30 30 31 31 30 25
41 42 45 49 50 50 49 48 47 47 45 43 42 41 38 36 34 32 31 31 31 33 35 33 30 28 27 29 29 28 25 23 22 23 23 23 22 25 27 28 31 31 31
44 45 47 48 48 48 49 48 47 45 43 41 37 33 31 31 31 30 31 34 36 33 30 29 28 27 26 28 28 26 25 23 23 24 25 25 25 25 26 26 25 24 24
44 45 46 47 47 47 45 43 41 39 37 33 28 29 30 30 33 36 37 32 29 28 26 25 25 25 25 27 28 28 27 26 26 26 26 26 26 26 28 28 28 26 24
39 40 41 42 42 41 40 37 35 32 29 27 30 31 32 33 34 32 28 26 25 24 25 25 26 27 28 29 30 30 29 30 30 29 29 28 28 28 29 29 29 29 26
36 38 39 39 39 38 35 32 29 27 30 32 30 30 30 29 27 26 25 25 25 27 30 31 29 27 26 26 27 28 26 25 25 24 26 29 30 28 29 30 29 29 28
34 35 35 34 33 32 31 30 30 30 30 29 28 27 26 24 25 26 26 25 23 22 23 30 26 24 24 24 23 24 25 25 24 24 24 25 28 30 31 31 30 30 30
32 31 31 30 30 29 29 29 28 27 27 27 26 25 23 22 20 19 16 15 15 18 21 22 22 22 22 21 22 24 26 26 27 27 28 27 28 29 31 31 30 30 30
30 30 29 28 27 27 26 26 27 28 26 23 22 20 17 15 14 11 13 16 19 19 18 19 21 22 20 20 22 24 25 26 28 29 29 30 29 29 30 32 31 31 30
28 28 28 27 26 26 25 24 24 22 20 17 15 14 16 16 15 15 18 19 19 20 20 20 20 20 20 20 20 20 21 23 26 29 29 28 28 27 28 30 30 30 29
27 27 27 26 24 21 19 17 16 15 13 12 14 17 17 17 16 15 18 20 20 20 20 20 19 19 18 17 18 17 18 19 20 24 26 27 29 28 28 29 29 29 28

GFSMW_sfc_30mbdewp_075.txt.gz
Dewpoint
49 51 51 51 48 50 50 50 52 56 58 58 54 52 52 58 61 60 60 60 57 56 54 52 51 46 43 41 43 43 43 41 41 39 39 37 38 37 34 33 32 31 31
46 49 51 51 47 48 47 49 52 56 57 54 51 49 51 58 60 59 59 58 56 55 54 51 49 45 43 43 43 42 41 41 41 40 37 33 32 34 35 33 32 32 32
44 45 48 49 50 48 49 50 53 56 58 52 48 50 54 56 58 58 57 57 55 55 53 50 48 45 44 43 44 44 43 41 41 41 38 31 27 27 27 28 30 33 33
43 44 47 49 50 50 51 52 53 56 57 58 50 51 55 55 56 56 56 54 54 53 51 49 47 47 44 43 44 44 44 43 40 39 36 35 34 30 28 27 26 28 31
42 44 45 46 49 50 51 52 53 52 54 57 57 52 52 52 55 56 55 54 52 51 50 48 47 47 44 44 43 44 44 42 39 35 31 30 28 27 27 27 28 28 25
41 42 44 45 46 51 53 53 52 51 53 58 58 56 54 53 55 56 53 53 53 50 49 47 47 47 45 45 45 45 44 39 37 34 31 27 25 25 26 26 26 22 22
42 42 40 44 45 47 51 53 53 53 54 58 59 58 57 56 56 55 54 53 51 49 49 48 48 47 45 44 46 43 41 40 37 34 31 27 27 29 29 27 25 23 21
39 43 44 43 44 47 51 53 54 54 54 55 58 58 58 57 56 55 54 54 52 51 50 49 48 46 44 44 43 43 40 39 37 35 32 31 29 29 28 26 24 24 22
33 37 42 45 46 47 49 53 54 53 54 55 57 58 58 57 57 56 56 54 53 50 50 49 47 46 45 45 43 39 40 36 35 35 34 33 32 30 28 28 27 25 24
35 36 38 43 46 49 49 54 54 52 53 54 57 58 57 58 57 57 56 55 53 52 49 49 46 47 45 45 43 40 35 35 35 33 33 33 32 30 28 28 27 26 24
36 37 39 41 45 49 51 53 53 51 51 54 56 57 57 57 58 57 56 56 53 48 48 47 45 46 47 47 41 36 35 33 33 33 32 32 32 30 29 28 27 26 25
33 37 40 41 43 48 50 52 54 51 51 53 56 57 57 56 54 52 51 50 49 48 47 46 47 49 46 39 37 36 33 32 31 32 32 30 29 29 29 29 28 27 26
30 37 40 43 44 47 50 52 53 52 51 55 56 55 52 51 49 49 49 48 47 47 48 47 45 43 41 37 33 32 33 32 32 31 29 28 28 28 29 29 27 27 24
29 34 40 43 46 48 50 51 52 53 54 55 54 52 50 49 48 48 48 47 46 45 44 44 44 42 37 32 31 32 31 29 28 27 27 27 27 27 28 28 28 26 26
24 29 35 42 47 50 51 52 54 55 54 53 51 50 48 48 47 46 46 45 43 43 41 41 40 36 30 31 32 30 26 24 24 25 25 25 26 29 30 28 29 28 26
27 29 33 40 48 52 53 54 53 51 51 49 47 47 47 46 44 43 42 42 39 38 38 38 31 33 35 28 26 26 24 23 22 22 21 22 23 24 28 29 30 29 28
36 37 37 44 50 53 52 50 49 50 48 48 47 45 44 42 41 38 37 36 35 34 34 33 36 34 30 27 27 28 26 23 21 21 22 22 21 24 24 26 30 30 30
41 43 46 48 50 51 50 49 48 47 46 44 43 42 41 38 35 33 32 33 34 36 36 34 31 30 27 28 28 28 27 25 25 25 25 26 27 27 27 27 27 27 27
44 46 47 48 49 50 49 47 45 44 43 41 40 37 35 32 32 33 35 38 37 33 31 28 25 25 25 28 28 29 29 29 29 28 27 26 27 28 29 29 29 29 30
43 45 47 48 47 47 46 45 43 41 39 36 33 32 31 32 34 36 36 32 30 26 23 23 25 28 28 30 28 27 27 26 26 24 22 23 22 23 27 30 31 32 29
41 42 43 44 44 42 41 39 38 36 33 31 31 33 33 33 33 31 28 26 24 25 30 32 31 26 24 25 24 25 22 22 24 23 23 24 24 25 27 29 30 31 31
39 40 41 41 40 39 38 36 34 33 33 32 31 30 29 27 28 26 26 25 24 26 25 32 27 25 25 23 24 25 25 25 24 24 26 27 28 29 29 28 28 29 31
37 38 37 36 35 35 34 33 33 32 31 30 29 29 27 24 22 22 21 18 15 18 22 22 23 23 23 21 23 21 22 22 23 24 26 28 29 30 30 30 30 30 31
35 35 34 34 33 33 32 31 30 29 29 28 27 24 21 18 14 11 13 17 20 20 18 19 22 23 21 19 21 19 19 20 21 22 24 25 27 28 30 30 31 30 31
33 33 33 32 30 29 29 29 29 28 26 23 19 18 16 17 16 16 19 19 21 22 22 22 21 21 20 19 18 18 18 18 20 22 24 25 26 26 26 28 28 30 31
32 31 31 29 28 27 26 25 24 22 18 16 16 19 19 17 15 14 22 18 20 21 21 19 19 19 17 16 16 16 16 17 18 18 19 20 23 22 22 24 25 30 31

GFSMW_sfc_30mbdewp_078.txt.gz
Dewpoint
52 53 53 54 54 54 54 53 53 54 54 56 54 54 53 57 58 57 58 60 60 59 58 55 54 53 48 45 46 46 43 42 43 42 42 43 42 38 37 37 35 34 33
49 52 52 53 53 53 54 55 55 56 56 57 55 53 54 58 59 59 59 60 59 59 57 55 54 52 48 47 46 46 45 45 44 42 41 38 40 40 39 38 36 36 34
48 49 49 52 52 53 53 54 56 56 57 57 56 52 56 57 59 59 59 59 58 58 57 56 53 50 49 47 48 46 45 45 45 43 40 36 34 34 36 38 36 34 35
46 49 49 50 49 50 52 51 51 56 58 58 52 50 51 55 57 58 58 58 58 56 56 54 52 49 49 47 48 47 47 45 43 44 43 39 36 34 31 32 32 37 35
45 46 48 51 51 50 50 50 51 55 57 58 57 51 55 55 57 58 58 56 56 55 57 55 52 50 49 49 47 48 45 45 43 39 35 35 36 36 33 28 29 31 32
42 44 47 49 50 52 52 52 54 55 57 58 58 56 56 56 56 57 57 56 55 55 54 53 51 51 49 49 49 48 47 43 39 38 37 34 30 29 30 30 30 30 28
43 44 45 46 49 50 52 54 54 53 55 58 58 58 57 55 56 57 56 54 54 54 53 52 51 50 49 49 48 47 45 41 40 39 36 35 31 31 32 31 31 28 28
42 43 45 45 46 49 52 53 53 53 53 58 59 58 59 57 57 57 56 54 54 53 51 52 51 50 49 48 46 45 44 41 41 37 38 35 35 34 33 31 29 28 28
36 42 43 46 46 47 51 54 54 53 53 57 59 59 59 59 58 58 57 56 55 54 53 52 51 50 47 46 46 43 40 41 42 42 38 37 37 36 35 32 30 29 28
35 35 42 45 46 48 49 53 54 53 54 55 57 59 58 59 59 58 57 56 56 54 53 52 49 47 46 45 43 42 43 44 43 38 38 37 37 36 35 32 31 31 30
35 36 37 40 47 48 49 53 54 54 54 55 56 58 59 59 59 58 57 56 54 52 49 48 47 46 46 46 45 45 44 42 38 37 37 35 36 35 34 33 33 31 30
28 34 38 39 42 49 50 52 54 55 54 54 56 59 59 58 58 56 54 52 50 49 48 48 47 47 48 49 46 43 40 39 37 36 35 35 35 33 35 34 33 32 31
27 33 38 39 41 44 51 52 54 55 54 53 58 58 57 57 55 53 51 50 49 49 48 47 47 47 46 45 44 41 40 37 36 35 34 33 32 32 32 32 32 32 30
25 28 36 39 42 45 48 51 55 55 56 57 57 55 54 52 51 50 49 48 48 48 47 47 46 45 45 43 42 39 35 35 32 32 31 30 30 30 30 30 31 31 30
23 24 28 40 44 46 50 52 57 56 56 55 53 50 49 49 48 48 48 48 47 46 45 45 45 44 42 41 37 34 31 26 25 27 28 27 28 28 27 26 27 28 28
26 30 29 32 46 50 52 55 55 53 52 50 48 49 48 48 48 47 46 44 44 44 44 43 42 40 38 30 27 28 26 26 26 26 25 26 25 24 25 27 28 28 27
30 35 36 36 52 54 53 51 50 50 48 48 48 48 46 45 44 43 43 42 41 40 39 38 38 37 37 28 26 26 28 26 26 26 26 26 25 27 29 29 30 30 31
37 39 41 51 52 51 50 50 50 48 47 47 46 45 44 42 41 40 40 38 37 36 36 38 36 32 31 29 29 29 29 28 28 30 30 30 29 29 28 27 26 29 30
41 43 47 51 51 50 49 47 47 46 45 44 44 43 41 39 38 36 36 36 37 38 36 33 31 28 30 30 29 29 31 31 29 28 27 26 25 24 23 23 24 26 27
45 47 49 50 49 49 47 46 45 43 43 43 42 41 38 35 34 35 37 39 38 34 31 27 33 30 29 28 26 25 26 25 25 25 25 25 25 25 26 26 26 26 26
44 47 48 48 49 47 46 44 43 42 41 39 37 34 33 33 36 37 35 31 28 32 33 32 29 26 26 26 27 26 26 25 25 25 24 25 27 28 29 29 28 27 28
43 45 45 45 45 45 44 42 40 38 35 33 33 34 35 33 32 30 26 26 29 31 30 28 28 28 27 26 24 24 22 22 23 23 24 25 25 25 26 28 29 29 30
41 42 42 42 41 41 40 37 34 34 34 34 33 30 28 28 27 27 27 23 21 23 27 25 25 26 25 25 23 21 20 21 21 22 23 23 23 24 26 29 29 30 30
39 39 39 37 36 36 35 34 35 34 32 31 30 28 24 20 17 16 19 22 24 23 21 22 23 25 23 23 21 20 20 19 20 20 21 21 23 25 25 25 26 27 29
37 37 36 35 34 34 33 33 32 31 30 28 24 20 19 19 22 21 23 24 22 24 24 24 23 22 22 20 18 18 18 18 18 19 20 20 22 21 21 21 22 23 24
35 35 35 33 31 30 29 30 29 27 24 20 23 24 22 19 21 21 19 23 21 21 19 18 19 20 18 17 16 16 16 16 16 18 17 19 18 18 18 18 19 20 20

GFSMW_sfc_30mbdewp_081.txt.gz
Dewpoint
52 53 52 53 53 54 53 53 53 53 52 50 48 46 47 54 54 55 56 56 56 57 58 57 54 51 48 44 44 43 41 42 43 41 42 44 42 38 36 36 35 35 35
51 52 53 52 52 52 53 53 53 53 51 50 48 49 51 55 56 57 57 56 57 58 59 54 53 52 48 46 45 43 43 44 43 42 41 38 39 40 38 38 37 36 35
51 52 52 53 52 52 52 52 52 52 52 52 52 54 54 56 57 57 57 59 59 60 59 55 53 52 50 45 45 45 44 43 44 42 40 36 34 34 36 39 39 37 35
51 52 52 53 53 52 52 50 51 51 52 55 55 55 52 54 56 57 58 59 59 58 58 56 54 52 49 45 46 47 46 45 43 43 42 39 36 33 31 33 32 33 35
49 50 52 52 53 51 51 51 54 55 55 56 56 56 52 55 57 58 57 58 58 57 57 56 54 51 48 47 47 47 47 45 42 40 38 36 38 36 32 31 29 32 33
48 48 49 51 52 50 52 53 53 55 56 57 57 57 52 55 56 57 57 57 56 56 56 56 54 50 49 48 47 47 45 44 42 39 38 34 31 30 29 30 30 30 30
48 48 49 49 50 50 51 51 50 51 56 57 57 57 54 54 56 57 57 55 55 55 55 55 54 51 50 50 49 47 44 41 39 39 37 37 32 32 32 32 31 30 30
45 47 48 49 50 49 50 49 49 50 54 57 57 58 57 56 56 57 57 56 55 55 54 54 53 51 50 48 47 46 44 42 41 39 38 36 36 36 34 32 31 28 28
43 45 46 48 50 50 51 49 49 51 53 56 57 58 58 57 57 57 57 56 55 54 53 53 52 51 48 47 46 46 44 42 42 40 41 41 40 37 36 35 32 29 27
42 44 45 47 48 50 50 52 53 53 53 53 57 58 58 58 58 58 57 56 55 54 53 53 50 47 47 47 46 45 44 42 42 43 44 41 38 37 37 35 33 32 30
34 39 45 45 47 49 50 51 53 52 53 53 58 58 59 58 59 58 57 56 56 54 52 48 47 46 47 48 46 45 45 45 45 45 42 39 38 37 36 35 34 32 32
36 35 36 43 46 48 49 50 54 54 54 54 58 59 59 59 59 58 57 55 53 50 48 48 48 48 47 47 46 46 46 44 42 41 38 37 36 36 36 36 34 33 32
30 35 36 38 47 49 49 50 54 54 54 55 56 58 58 58 57 55 54 52 50 49 49 48 47 47 47 48 47 45 44 43 41 39 36 36 34 32 32 32 32 32 32
28 32 37 38 40 49 51 52 54 55 56 56 57 57 57 56 54 52 51 50 49 49 48 48 48 47 47 46 45 44 42 41 39 36 33 31 29 29 28 29 29 30 31
27 27 38 39 41 46 53 54 56 56 56 56 55 54 53 52 51 50 50 49 49 48 48 47 46 46 45 44 43 42 39 31 26 27 27 26 26 27 27 26 25 26 26
28 28 32 41 45 52 55 56 55 53 53 51 50 50 49 49 49 49 48 47 46 46 46 46 46 45 43 41 39 33 27 26 25 24 25 26 25 25 26 30 30 30 29
33 34 39 49 53 53 53 52 50 50 49 49 49 48 48 47 46 45 45 45 45 45 44 44 43 42 41 33 27 28 27 26 25 24 25 27 29 30 28 26 25 25 26
37 42 52 52 51 51 50 49 49 49 48 47 47 46 45 45 45 44 44 43 42 42 42 40 39 38 33 29 28 28 28 28 30 30 29 27 26 25 25 25 24 24 25
41 49 52 50 50 49 49 48 47 47 47 46 45 45 43 42 42 42 41 40 39 37 36 38 35 31 30 29 29 31 29 28 26 27 26 26 25 25 27 26 26 27 27
48 51 50 49 48 47 47 47 46 45 45 44 43 42 42 41 41 40 38 38 38 37 34 32 31 29 27 26 26 25 25 24 24 24 25 25 26 27 28 27 26 24 24
49 50 49 49 47 47 46 44 44 44 44 43 42 41 39 37 37 38 38 37 34 33 30 28 28 27 27 28 27 26 23 21 21 22 23 24 25 26 25 25 26 26 27
47 49 48 48 47 46 45 43 43 43 42 40 36 34 34 35 37 35 31 33 32 30 28 26 28 27 27 26 24 23 22 23 21 21 22 23 22 21 23 26 28 29 29
45 46 46 47 46 45 44 42 37 35 35 34 34 35 32 32 30 28 28 30 30 29 27 25 26 26 25 24 22 21 20 20 20 20 19 19 20 22 24 24 23 24 25
42 42 42 41 41 40 37 35 35 35 34 31 29 27 23 22 22 25 27 26 26 25 24 24 26 25 24 21 20 20 19 19 19 19 19 20 21 23 21 20 20 22 21
39 38 36 34 34 34 34 34 34 33 30 24 23 23 23 22 22 25 25 23 25 26 24 23 24 23 22 20 18 17 18 18 19 18 19 19 19 19 18 18 18 18 19
36 34 33 27 21 21 23 25 27 25 24 23 23 23 23 24 22 21 22 25 23 22 21 22 22 21 20 17 16 17 16 16 16 17 18 17 15 15 16 16 16 15 15

GFSMW_sfc_30mbdewp_084.txt.gz
Dewpoint
53 54 54 54 54 53 53 53 53 54 53 52 51 51 50 50 52 54 53 56 54 57 58 57 55 51 47 45 42 42 41 42 43 41 42 42 43 38 35 34 33 34 37
50 52 53 53 53 53 53 52 52 52 50 50 49 48 47 51 53 55 55 56 56 56 58 57 55 52 49 45 44 42 42 42 43 40 40 38 39 40 38 37 36 35 36
49 51 51 52 52 52 52 52 51 51 50 49 48 49 49 53 53 54 55 55 56 57 58 56 55 52 49 46 45 43 42 42 43 42 39 37 35 35 35 38 39 37 37
50 51 51 51 52 52 53 52 52 51 50 50 48 48 46 48 54 54 55 56 57 57 58 57 55 53 50 46 45 45 44 44 42 43 42 39 37 33 32 33 33 35 36
51 50 50 52 52 52 52 52 52 52 50 51 50 49 52 54 54 55 56 56 57 58 59 58 55 53 51 47 46 46 45 45 44 42 42 39 38 35 32 30 31 32 32
50 51 51 52 52 51 51 52 51 51 51 52 52 52 52 54 55 56 56 56 57 58 57 57 55 53 51 49 47 47 46 45 44 41 39 36 34 34 34 33 32 30 31
48 50 51 52 52 51 50 51 50 50 50 51 52 54 55 54 54 55 56 56 56 56 56 56 55 53 51 49 48 48 46 45 41 40 39 36 33 32 32 31 30 30 31
48 49 50 51 51 50 49 49 49 50 52 54 54 55 56 55 55 55 56 56 56 56 56 56 55 53 51 50 49 47 45 45 45 45 43 41 38 36 34 32 31 29 29
48 48 49 50 51 51 47 48 49 51 52 54 56 57 57 57 55 56 57 57 57 57 55 55 54 53 50 49 47 46 46 46 45 45 44 43 42 43 39 36 33 31 29
45 48 48 49 50 51 51 49 50 51 51 52 56 57 57 57 56 56 57 57 57 56 55 54 52 49 48 47 47 46 46 46 46 45 43 44 44 41 40 38 36 33 31
44 45 47 49 49 50 51 51 52 51 50 50 54 56 57 58 57 57 57 57 56 55 54 53 50 48 47 47 47 47 47 46 44 45 45 44 43 42 40 37 36 34 33
42 44 45 46 48 50 52 51 51 51 51 52 52 55 57 58 58 57 57 56 55 55 52 51 49 48 47 48 47 46 45 44 44 45 44 43 42 39 37 36 35 34 34
37 41 44 45 45 47 50 51 52 53 54 54 54 56 58 58 58 57 56 56 55 53 51 50 48 47 47 47 47 46 46 46 45 43 42 40 38 36 35 33 32 32 32
29 35 38 42 45 46 48 50 51 53 54 54 55 55 58 58 58 56 56 56 53 51 50 50 49 48 48 48 47 46 46 45 44 42 39 37 34 31 29 29 28 29 29
28 28 35 41 46 47 49 50 51 54 55 54 55 56 56 57 56 55 54 52 51 50 49 49 48 48 48 47 47 46 44 42 39 34 30 28 27 28 28 27 27 28 27
27 28 31 39 43 48 50 53 54 55 55 55 54 53 52 52 52 50 50 50 49 49 48 47 47 46 46 46 45 43 40 38 30 26 25 25 27 31 30 27 26 25 24
28 32 36 42 49 53 54 53 53 53 53 52 50 50 49 48 48 48 48 47 47 47 46 46 46 45 43 44 42 39 31 27 25 24 26 29 27 26 25 25 25 24 25
37 48 50 51 52 51 51 51 51 50 49 49 48 49 48 47 46 46 46 45 45 45 45 45 44 44 39 37 34 30 28 30 30 29 27 26 25 24 27 27 26 26 27
42 49 51 50 50 49 49 49 49 49 49 48 47 47 46 46 45 44 44 44 44 44 43 43 40 36 34 32 30 31 29 27 26 26 26 25 24 27 28 26 24 23 23
49 50 50 49 49 48 48 48 47 47 47 46 45 45 44 44 43 43 42 42 41 38 36 34 33 30 30 30 28 26 26 24 22 23 23 24 24 25 26 25 24 25 25
50 50 49 48 47 47 47 46 46 45 45 44 43 43 43 43 42 42 41 39 35 32 31 30 29 28 28 28 27 25 22 21 21 21 21 22 23 22 22 24 26 27 27
49 49 48 47 46 46 46 45 44 44 43 43 42 42 40 38 39 37 36 34 32 29 29 28 27 27 27 26 25 24 23 22 19 19 21 22 20 20 23 26 23 21 24
48 48 47 46 45 45 44 43 42 41 38 36 35 36 35 32 33 34 33 32 31 29 29 27 26 25 24 23 22 20 20 20 19 19 19 19 20 22 24 21 18 22 21
45 46 45 43 41 39 37 36 36 35 32 28 26 26 27 26 26 27 28 29 28 27 28 29 27 25 23 21 20 20 20 19 19 19 19 20 21 22 20 19 19 20 19
38 37 31 27 27 29 32 33 29 26 24 24 23 23 24 25 24 24 24 24 27 28 26 26 26 24 23 22 19 19 19 18 19 18 18 19 19 17 17 17 16 16 15
25 23 23 23 23 23 24 25 25 23 23 24 25 26 26 25 25 25 25 26 26 25 25 25 24 24 22 18 18 19 18 17 17 18 18 16 14 14 15 15 14 13 13

GFSMW_sfc_30mbdewp_087.txt.gz
Dewpoint
53 54 54 54 54 54 54 54 53 54 53 53 52 52 53 53 53 54 56 55 57 58 56 55 54 52 51 49 44 41 40 40 41 39 40 40 40 37 36 37 39 37 40
51 53 54 54 53 53 53 53 53 53 52 51 48 49 51 52 52 54 54 56 54 57 57 56 54 52 50 47 43 41 41 41 42 39 40 38 40 41 39 36 35 34 36
49 51 52 53 53 53 53 52 53 52 52 51 49 48 50 51 51 52 54 54 55 55 58 58 56 54 50 47 44 43 41 40 43 42 39 37 36 37 37 38 38 37 36
49 50 50 50 51 52 52 52 52 52 50 49 48 48 46 46 48 49 54 53 55 55 56 57 57 54 51 48 45 44 43 42 40 43 42 39 37 34 33 34 34 38 38
49 50 51 51 51 51 52 52 51 51 50 50 48 47 46 46 49 53 53 54 55 56 57 58 56 54 52 49 47 45 44 44 42 42 42 40 37 35 32 31 31 32 33
50 50 51 51 51 52 52 52 51 51 50 50 49 48 48 49 50 52 53 54 55 56 57 58 56 55 53 50 48 48 47 45 44 43 41 39 38 36 34 33 33 30 31
49 50 50 50 52 51 51 52 51 51 50 50 49 49 49 50 51 51 53 54 54 55 55 56 56 55 54 52 51 49 47 47 44 42 40 39 39 37 38 36 34 30 32
48 49 49 50 52 51 51 51 51 50 50 50 49 49 50 50 52 53 54 55 55 54 55 56 57 56 53 52 50 49 47 46 44 43 44 42 42 42 40 36 32 30 30
47 47 48 50 51 52 51 50 50 50 50 50 50 49 50 51 52 54 55 55 56 56 56 56 56 55 53 51 49 47 46 46 46 46 45 44 44 44 41 38 36 34 31
47 47 47 50 51 52 52 51 50 49 49 50 50 50 51 52 53 54 55 55 56 56 56 55 55 54 52 50 49 47 47 46 46 46 45 45 45 44 44 41 37 35 34
45 48 48 48 50 51 51 50 50 49 48 49 51 52 53 55 56 56 55 56 56 56 55 55 55 52 51 50 48 47 47 46 46 46 45 45 44 43 43 41 39 37 34
43 46 48 48 49 50 51 50 49 48 49 50 51 52 55 56 57 57 57 56 56 56 55 54 53 52 50 49 48 47 47 47 46 45 44 43 44 43 42 40 38 36 35
42 44 46 48 49 49 50 51 51 49 50 51 52 52 52 55 56 57 56 56 56 55 54 54 53 51 50 49 49 47 47 47 46 45 44 44 44 42 40 38 36 35 34
36 42 44 45 47 49 50 50 51 52 52 52 52 52 52 55 56 57 56 56 55 56 54 53 52 51 50 49 48 47 46 46 45 45 45 44 42 41 38 33 31 30 28
27 34 40 43 45 46 48 50 52 52 52 52 52 52 53 56 56 57 56 56 56 56 53 52 51 50 49 48 47 47 46 46 45 44 42 40 38 33 29 27 25 26 26
27 29 35 38 41 45 46 48 50 52 53 53 53 54 54 56 56 55 55 54 52 52 51 51 50 48 48 47 47 46 45 44 42 38 32 30 32 30 29 28 27 25 24
28 28 29 34 39 46 49 50 51 53 53 53 52 52 52 52 51 51 51 50 50 50 49 48 48 48 47 45 44 43 41 39 36 32 29 29 27 27 25 25 25 24 25
29 37 44 47 49 51 52 52 52 52 52 51 50 50 50 50 49 49 49 48 47 47 46 46 46 44 43 43 41 39 36 32 30 29 29 27 25 27 28 27 25 26 25
36 46 49 49 49 50 50 50 50 50 50 49 49 49 48 47 47 46 45 45 45 45 44 44 42 40 38 37 35 32 30 28 27 26 26 25 25 26 26 24 22 22 24
48 48 49 48 48 49 50 49 49 49 48 48 47 46 46 46 45 44 44 45 44 42 40 37 36 35 34 33 31 30 28 26 23 23 23 23 23 24 24 23 23 24 24
48 49 48 48 47 47 48 47 47 46 46 45 45 44 44 44 43 43 41 38 36 34 32 30 30 30 30 30 29 27 26 24 23 21 20 21 21 20 21 24 26 24 23
48 48 47 46 46 46 46 45 45 44 44 43 43 42 40 40 39 37 35 33 32 31 29 28 27 28 28 29 28 27 23 21 20 19 20 20 20 21 24 25 19 20 21
48 47 46 45 45 45 45 44 43 41 38 33 31 31 31 31 34 34 33 31 31 29 28 27 26 25 25 25 25 22 20 19 18 19 19 19 20 22 24 19 18 19 19
47 45 41 38 37 37 37 37 33 29 29 29 28 28 28 27 27 28 29 29 30 30 29 28 25 24 23 23 23 20 21 21 21 20 19 20 21 23 20 19 19 17 17
33 32 30 29 29 29 28 28 27 27 26 25 25 25 23 23 25 26 27 27 29 30 29 28 27 24 23 22 23 22 20 20 19 19 20 20 19 17 17 16 15 14 13
27 26 25 25 25 25 25 24 25 25 25 26 26 26 27 28 27 26 25 28 28 28 27 25 24 25 24 23 24 24 23 21 19 18 17 15 14 14 15 15 14 12 12

GFSMW_sfc_30mbdewp_093.txt.gz
Dewpoint
50 52 54 55 55 55 55 55 55 56 56 55 56 56 56 57 58 58 58 58 58 56 55 53 54 53 50 46 45 44 42 40 41 38 38 39 39 39 41 44 44 44 44
50 51 52 54 54 54 54 55 54 55 55 55 56 56 56 57 57 57 58 57 57 56 55 53 53 53 52 49 46 44 44 43 42 37 37 35 38 39 39 38 43 43 41
49 50 52 53 54 53 54 54 54 54 55 55 55 55 54 54 55 56 56 56 56 55 55 54 54 54 53 51 49 47 44 42 42 44 40 39 36 39 42 41 38 40 42
49 49 50 52 52 54 54 54 54 54 54 53 53 54 53 53 53 53 54 55 56 57 56 55 54 54 54 53 52 50 48 46 41 42 44 43 42 38 38 40 41 40 39
49 49 49 51 53 54 53 53 54 53 53 52 53 52 51 52 50 53 54 54 54 55 56 57 56 55 54 54 54 51 49 49 47 43 44 43 40 40 38 38 37 38 39
49 49 49 51 52 53 53 53 53 53 52 52 52 51 51 51 48 50 51 53 53 54 55 55 56 57 56 55 54 53 52 51 50 47 47 43 41 39 39 39 37 37 37
48 49 49 49 50 51 52 52 53 52 51 51 50 50 51 50 49 48 49 51 51 52 53 55 56 56 57 56 56 55 53 52 51 49 47 46 46 45 42 41 41 40 39
48 48 49 49 50 50 51 51 51 51 51 51 50 50 49 49 50 49 48 50 50 51 52 54 54 55 56 56 56 55 54 54 52 50 48 49 47 46 44 43 43 40 40
47 48 48 49 50 51 50 51 51 51 52 51 51 50 50 49 48 48 50 50 50 51 53 54 54 54 55 55 55 55 55 54 53 52 50 51 49 47 45 45 44 44 41
45 47 48 49 50 51 51 51 51 50 51 52 51 51 50 50 49 50 50 50 51 52 52 53 54 54 55 55 55 55 55 54 53 52 51 50 49 48 47 47 44 45 44
44 46 48 49 50 51 51 52 52 52 52 51 51 51 51 50 50 50 50 50 51 52 52 53 54 54 55 55 55 55 54 52 51 50 50 49 49 47 46 47 46 43 43
43 45 47 48 49 50 51 51 52 52 52 51 51 51 52 51 51 51 51 51 51 53 53 53 53 54 55 55 53 53 53 51 51 50 49 49 49 47 47 47 45 43 40
42 46 47 47 48 49 50 51 51 51 51 51 51 51 51 51 51 51 51 51 52 52 52 53 53 54 55 54 55 54 54 52 51 51 50 49 49 47 47 47 46 44 40
37 43 46 47 48 49 50 51 51 51 51 51 50 50 50 51 50 51 51 52 52 52 53 54 54 55 56 56 55 54 53 52 52 53 51 49 49 48 47 46 44 42 40
28 37 42 45 48 49 50 51 51 52 51 51 51 50 50 51 51 52 52 53 54 55 55 56 56 56 56 55 54 53 53 52 51 50 50 49 49 48 47 44 41 40 37
28 29 35 43 46 48 49 50 51 51 51 51 50 50 50 51 52 53 53 54 55 56 56 56 56 56 55 54 52 52 51 51 49 48 42 42 41 40 39 40 39 38 36
30 29 29 36 44 47 49 50 51 52 52 51 50 50 50 50 51 52 53 53 54 55 56 55 55 53 51 50 50 47 47 46 42 38 38 36 34 34 33 32 31 30 30
30 30 31 38 46 49 49 50 51 52 52 52 52 52 52 52 53 53 54 53 51 50 48 46 45 42 38 40 43 41 38 36 35 35 33 32 31 31 31 30 30 30 30
31 39 44 48 49 50 51 51 51 51 51 51 51 52 52 51 49 48 47 46 45 42 40 39 37 35 34 34 35 34 32 30 29 30 30 30 29 30 30 29 27 27 27
48 48 49 49 50 50 50 50 49 48 47 47 47 47 47 46 45 44 42 40 37 35 34 32 32 32 32 32 31 30 29 28 27 27 27 27 27 27 27 25 24 23 25
46 48 48 48 49 49 48 46 45 44 44 44 44 44 43 41 40 39 38 35 33 31 30 29 29 29 30 31 31 30 28 27 26 25 24 25 26 26 26 27 26 26 26
46 47 46 46 46 45 44 43 40 40 39 39 38 37 36 36 36 35 33 32 30 29 28 27 26 27 28 28 28 28 28 28 26 24 24 25 25 25 27 26 25 23 23
43 43 42 41 40 41 40 37 36 35 34 33 32 31 31 31 32 32 31 30 29 28 27 26 24 24 24 25 26 26 25 25 24 24 24 24 24 25 26 25 24 21 21
38 35 32 31 30 31 33 32 32 31 30 30 30 29 29 29 29 29 29 30 30 28 27 26 24 24 24 24 25 25 25 25 24 24 24 23 24 25 24 24 22 21 19
31 30 29 28 28 28 28 28 29 30 29 29 28 28 27 27 27 27 27 26 28 28 27 27 26 25 23 23 25 24 23 22 22 22 21 20 19 20 20 20 19 18 17
29 28 28 28 28 28 28 29 29 30 30 29 28 28 27 26 25 25 25 26 25 25 25 25 25 25 25 24 22 21 20 20 20 18 17 16 16 15 14 15 15 14 13

GFSMW_sfc_30mbdewp_096.txt.gz
Dewpoint
48 50 52 55 56 56 56 56 56 57 58 57 57 57 57 59 60 60 60 60 58 55 55 52 53 50 48 47 48 47 46 44 43 38 39 40 42 42 41 44 48 48 47
48 49 51 54 55 55 56 56 56 56 56 57 57 57 58 58 59 59 59 59 58 55 54 52 53 51 49 49 49 47 46 46 44 40 38 36 37 38 40 40 42 43 41
46 48 51 53 55 54 54 55 55 56 56 57 56 56 57 57 57 58 58 58 58 56 54 51 52 52 51 50 50 48 48 46 44 43 40 39 39 39 39 39 40 41 43
45 48 49 51 54 54 55 55 54 56 56 56 55 55 54 52 55 57 56 58 58 57 56 54 52 53 53 52 52 50 49 47 45 44 44 46 45 41 41 42 41 40 42
45 47 48 50 53 53 54 54 54 55 55 55 55 54 53 53 56 55 55 56 57 57 56 56 55 54 53 54 53 52 51 49 48 46 45 43 43 43 42 42 41 42 41
45 47 48 49 52 54 54 54 54 54 54 54 53 53 52 52 54 54 54 55 56 55 55 55 55 55 54 53 54 54 54 53 51 50 50 48 47 45 44 43 43 47 44
45 47 47 47 50 52 53 54 53 53 54 54 53 53 53 52 52 53 53 51 51 53 54 55 56 55 54 53 54 55 55 55 54 53 52 51 50 49 46 44 47 47 45
45 46 47 47 49 51 52 53 53 53 53 52 52 51 51 52 52 51 50 52 49 49 51 52 52 54 53 54 54 55 55 55 55 55 55 54 54 51 48 47 47 46 45
44 46 47 48 47 50 52 52 52 53 53 53 52 51 51 51 51 51 50 49 49 50 51 52 53 53 53 53 54 54 54 55 55 55 56 55 53 51 51 50 49 47 44
41 44 46 48 48 49 51 52 51 51 52 53 52 51 50 50 50 50 50 50 49 49 49 51 52 52 52 52 53 53 53 53 54 54 54 54 54 53 53 51 49 47 46
40 43 46 48 49 49 50 52 52 51 51 52 53 52 52 52 51 50 50 50 50 50 50 50 51 51 51 51 52 52 52 52 53 54 55 55 55 54 52 51 49 48 48
40 42 45 47 48 49 50 51 52 51 51 51 51 52 52 52 51 51 50 50 49 50 51 51 50 50 50 51 52 53 53 53 53 55 54 53 53 52 52 50 49 48 48
39 41 44 46 47 48 49 50 51 52 52 51 51 51 52 52 52 52 52 51 52 51 51 51 51 51 51 51 52 54 54 54 54 55 54 53 52 51 50 50 48 48 48
36 41 43 44 46 47 48 49 49 51 51 51 51 51 51 52 52 52 52 52 52 51 51 51 51 51 51 51 52 54 54 55 56 55 54 53 52 50 50 50 48 48 47
29 35 40 43 44 46 48 49 49 50 50 51 51 50 51 51 52 52 52 52 52 52 51 51 51 52 53 54 54 55 56 55 54 53 53 53 52 51 50 49 48 47 44
29 29 33 40 44 46 47 49 50 51 51 50 50 51 51 51 51 51 51 51 52 52 52 52 53 54 56 55 55 55 55 53 51 51 45 41 40 38 39 40 38 39 38
29 31 31 34 41 46 48 48 50 52 52 52 51 51 51 51 51 51 52 52 53 54 54 55 54 48 42 42 49 48 46 42 39 38 37 35 34 34 33 32 32 32 32
30 30 33 35 39 44 48 49 50 52 52 51 51 51 51 51 51 51 52 53 51 48 45 41 39 37 35 37 38 37 35 33 32 32 32 31 30 32 32 31 29 29 30
33 34 35 41 46 46 48 49 50 51 52 52 52 53 53 53 50 48 46 44 40 37 35 35 34 33 32 33 33 32 30 28 28 29 29 28 28 29 30 29 28 28 28
45 45 46 48 49 50 51 51 50 49 47 47 47 46 46 45 42 40 37 36 34 33 32 31 32 32 31 32 31 30 28 27 26 26 26 27 27 27 28 28 28 26 27
48 48 49 49 49 50 48 46 45 43 43 41 40 39 39 38 37 35 34 32 31 29 29 28 29 29 30 30 30 29 28 27 26 25 24 25 26 26 26 27 28 28 28
46 47 46 46 47 46 43 41 39 38 37 36 35 35 35 34 33 32 31 30 29 28 28 27 26 26 28 28 28 28 28 28 27 26 27 26 25 25 26 27 26 24 25
39 37 36 38 39 39 38 36 35 35 34 34 33 32 31 31 32 31 30 29 29 28 27 25 24 24 25 26 27 26 25 25 25 24 24 24 24 25 26 25 23 23 22
36 34 34 33 33 34 33 34 34 34 33 32 31 31 30 29 28 28 29 29 28 27 26 25 25 26 25 25 25 24 24 23 22 23 22 23 23 24 23 24 23 21 19
33 32 32 31 31 32 33 34 34 33 31 30 29 28 28 27 26 26 26 26 26 28 28 27 26 24 22 22 22 21 20 20 20 21 19 18 17 16 17 17 20 18 15
31 30 30 30 30 31 32 32 33 32 30 29 29 29 28 27 25 23 23 25 24 23 23 24 22 21 20 18 18 18 15 15 15 16 14 15 14 14 13 15 15 14 15

GFSMW_sfc_30mbdewp_099.txt.gz
Dewpoint
42 47 50 53 54 57 57 57 58 58 58 58 58 58 58 59 61 62 61 60 59 57 56 51 53 52 50 50 50 49 49 47 46 41 41 42 42 43 43 47 48 48 49
42 47 50 52 54 55 56 56 57 57 58 57 58 58 58 60 60 61 60 59 58 57 57 55 54 52 50 51 51 50 48 47 46 42 42 41 40 42 43 43 47 50 48
39 46 49 51 54 54 55 56 56 57 57 57 58 58 58 58 58 59 59 59 57 56 54 55 55 53 52 51 52 52 49 48 47 47 43 41 40 41 41 43 43 45 47
35 45 48 50 53 54 55 55 56 55 57 57 56 57 56 55 57 57 58 58 58 56 56 55 54 54 53 53 53 52 51 49 48 47 45 46 47 44 42 42 43 44 45
36 43 47 49 52 54 55 55 55 55 56 57 56 56 55 56 57 57 57 58 58 57 55 54 54 55 53 53 54 53 53 52 50 47 46 47 47 48 45 44 44 44 43
38 43 47 47 50 54 54 54 55 54 56 56 56 55 54 54 56 56 56 56 57 58 57 55 55 55 55 55 56 55 53 53 52 51 50 48 47 46 47 46 47 46 46
39 43 46 47 49 53 53 54 54 54 55 55 55 55 54 54 55 56 55 54 54 56 56 56 56 56 55 55 56 55 55 55 55 54 53 53 52 52 51 50 48 49 49
40 43 45 46 48 52 53 53 53 53 54 54 55 54 54 52 52 54 55 54 53 55 55 54 53 53 54 55 55 56 53 53 56 56 56 55 54 54 53 51 49 47 48
39 42 44 46 47 50 52 53 53 52 54 54 54 54 53 52 50 53 54 54 54 54 55 55 53 53 53 54 53 52 52 53 55 57 57 56 56 56 55 54 51 49 46
37 41 43 46 47 49 51 52 52 51 52 54 53 53 52 53 52 52 52 54 54 51 52 54 53 53 52 53 53 53 54 54 55 56 56 55 55 54 54 53 52 51 49
35 40 43 46 47 49 50 52 51 50 51 52 53 54 52 51 52 52 53 52 52 52 51 52 52 52 52 53 53 54 54 53 53 54 54 54 54 55 55 55 54 53 52
33 38 42 45 47 48 49 51 51 49 50 51 52 53 53 52 51 51 52 53 52 52 51 51 50 51 51 52 52 53 52 52 53 53 54 54 54 55 55 55 54 53 52
37 39 42 44 46 48 48 49 51 50 49 50 51 52 53 52 52 52 53 53 52 52 52 51 51 51 51 52 53 53 53 53 53 54 54 54 54 54 54 54 52 52 51
32 38 40 43 45 47 48 49 50 50 50 49 50 51 51 52 52 52 53 53 53 52 51 52 52 52 52 51 51 51 52 53 53 55 54 54 55 55 54 53 51 51 49
29 34 38 41 44 46 48 49 50 51 50 50 50 50 51 52 52 52 52 53 53 52 52 52 51 51 51 51 51 51 52 53 54 55 51 40 38 37 38 43 47 48 47
25 28 33 38 41 44 46 48 49 51 51 51 51 50 51 51 52 52 53 52 52 52 52 51 51 52 48 43 48 52 53 47 44 42 37 35 35 34 33 33 32 32 36
25 27 29 33 39 43 45 46 48 50 51 50 51 51 51 51 51 52 52 52 52 52 47 45 42 38 37 38 40 39 37 35 34 34 33 32 33 33 32 30 30 30 31
28 29 30 33 35 42 45 47 49 50 51 51 50 50 51 51 51 51 50 46 43 40 38 36 35 34 34 34 34 33 32 31 30 30 30 30 31 31 30 29 29 29 30
35 33 36 34 37 40 45 47 49 51 51 51 51 51 52 52 48 44 40 38 35 34 33 34 33 32 32 32 32 30 29 28 28 29 29 28 28 28 30 29 29 29 29
41 41 43 45 45 45 47 48 50 51 49 48 46 46 44 41 38 36 34 33 32 31 31 31 31 32 31 32 31 30 29 27 27 26 26 27 26 26 27 28 29 28 29
46 48 47 49 51 51 49 46 44 42 41 40 39 37 37 35 34 33 32 31 30 29 28 28 28 29 29 29 30 30 29 28 26 26 25 25 25 25 26 27 24 24 24
47 47 48 47 46 45 43 39 38 38 37 36 35 34 34 33 32 31 31 30 29 28 27 26 26 27 27 26 26 25 27 28 27 26 24 23 24 25 25 25 24 23 24
40 40 40 39 39 39 37 35 36 35 34 33 32 32 32 32 31 30 29 29 28 27 27 26 26 26 27 28 27 25 24 24 23 23 23 21 22 22 25 23 21 22 21
37 36 35 35 35 35 35 35 35 34 32 31 30 30 29 28 28 28 29 29 28 27 27 27 25 24 23 22 23 22 22 21 20 23 22 22 20 23 23 20 22 24 20
34 34 34 34 35 35 34 34 34 32 31 30 29 28 27 26 26 26 26 25 27 27 26 25 24 22 20 20 18 17 17 17 17 19 16 15 14 13 11 12 13 13 14
34 32 33 33 34 33 33 33 33 32 30 30 29 27 26 24 22 22 22 22 21 20 21 21 19 17 16 15 15 14 12 12 12 13 11 12 12 10 7 6 6 6 5

GFSMW_sfc_30mbdewp_102.txt.gz
Dewpoint
38 49 50 53 55 57 57 57 58 58 58 58 58 59 58 60 62 62 60 60 60 58 56 54 54 54 56 55 54 52 48 47 49 45 45 45 45 47 48 49 50 50 51
41 49 51 53 56 56 56 56 58 58 58 58 58 58 58 59 60 62 60 60 59 58 54 54 54 53 53 54 52 50 49 50 49 46 44 43 43 44 45 47 49 51 50
40 48 51 53 55 55 55 56 56 58 58 58 58 58 59 59 59 60 60 59 58 57 55 54 55 53 52 53 51 52 50 50 49 47 46 43 41 43 45 45 46 47 51
28 47 50 52 55 55 55 55 56 57 57 57 57 57 57 56 58 59 59 59 58 57 57 57 56 55 54 53 53 53 52 50 47 48 48 48 49 46 42 44 45 45 46
29 46 48 51 53 55 55 55 56 57 56 57 57 57 56 57 58 58 57 57 57 56 56 57 56 55 54 54 54 54 52 53 50 48 47 47 48 49 47 45 43 44 44
31 44 48 50 52 55 55 55 55 55 57 57 57 56 56 56 56 56 56 56 56 56 56 55 56 56 55 55 55 54 53 54 53 50 49 48 47 46 47 47 47 46 46
38 42 47 48 50 55 54 55 54 54 56 56 57 56 56 56 56 56 56 55 55 55 55 55 57 57 56 55 54 56 55 55 54 53 53 52 50 50 49 49 48 48 49
39 42 46 48 50 54 54 54 54 53 55 56 56 56 55 56 56 56 56 55 55 54 55 55 56 56 54 54 56 56 56 56 56 54 53 53 53 54 53 52 50 49 50
38 42 46 48 50 53 54 54 54 52 54 55 55 55 54 54 55 55 55 55 56 57 56 55 55 56 55 55 55 54 54 55 54 53 54 53 55 56 55 54 53 51 48
38 42 44 48 50 53 54 54 54 53 53 55 55 55 54 53 53 55 55 54 55 55 56 55 54 54 53 54 54 54 53 53 54 55 55 55 56 56 57 56 55 54 52
35 41 44 48 48 52 53 54 53 52 54 55 55 54 54 54 52 53 55 55 55 55 55 55 55 54 53 54 53 53 52 52 53 54 55 55 55 56 56 56 55 54 53
31 40 43 47 48 50 52 53 53 52 53 54 54 53 53 54 53 53 51 52 55 54 53 55 54 53 53 53 53 53 53 54 54 54 54 54 54 55 55 55 55 55 54
30 36 42 46 47 50 51 52 53 51 52 53 54 54 53 53 53 53 54 54 54 54 53 53 53 52 52 52 53 53 53 53 53 53 53 53 54 54 55 55 55 55 54
31 37 40 44 47 49 50 51 52 51 52 52 53 54 54 54 53 53 53 53 54 53 53 53 52 52 52 52 52 52 53 53 54 53 46 42 41 41 42 46 46 48 49
26 31 39 42 46 48 49 50 52 51 51 51 52 53 54 54 54 54 54 54 54 53 53 53 53 53 53 50 49 53 53 51 46 39 38 36 35 34 34 36 35 37 40
25 25 33 40 43 47 49 50 51 51 51 50 51 52 54 54 54 55 55 55 54 54 54 53 49 43 40 40 48 48 43 40 39 35 34 34 35 33 33 32 32 32 34
25 25 29 33 42 45 48 50 51 53 52 51 51 51 52 53 54 54 54 54 52 46 42 39 38 36 35 35 36 36 35 34 33 33 32 32 32 32 31 31 31 31 31
25 28 34 35 37 44 47 49 50 52 53 52 52 52 52 52 53 52 45 42 39 37 35 34 34 33 33 33 33 32 31 30 30 30 30 29 29 30 31 31 30 30 30
33 38 39 41 37 42 46 48 49 51 52 51 51 52 52 47 43 40 38 36 35 33 33 32 32 31 31 32 31 30 29 28 28 28 29 28 27 27 29 29 29 29 29
46 43 44 45 46 50 49 48 50 51 48 46 45 42 41 39 37 35 34 33 32 31 30 30 30 31 31 32 31 30 28 27 27 27 26 26 26 26 28 25 24 22 23
47 49 50 49 48 46 45 44 42 41 40 39 38 36 35 34 33 32 31 30 29 29 28 28 28 28 28 30 30 30 29 28 27 26 24 25 26 26 25 23 23 23 25
43 46 46 44 44 43 40 38 37 37 36 36 34 34 33 32 32 31 30 29 28 27 27 26 26 27 27 26 25 26 26 26 24 23 23 24 26 24 23 23 23 23 22
39 39 38 37 37 38 38 36 35 35 34 33 33 32 32 31 31 30 29 29 28 27 27 26 26 26 27 25 24 23 23 25 25 24 23 22 22 23 24 23 21 20 19
36 36 36 35 35 35 35 34 33 32 31 30 30 29 29 28 28 29 29 29 28 27 25 24 22 21 20 19 20 20 20 20 22 22 19 17 17 15 15 15 14 15 13
35 35 35 35 35 34 33 33 32 31 29 28 27 26 25 24 24 24 24 24 25 25 23 22 21 19 19 17 15 14 16 16 17 18 17 15 13 11 10 9 8 9 9
34 35 35 34 34 34 34 34 32 30 29 27 26 25 24 22 21 20 20 23 22 21 19 18 17 16 14 14 13 10 10 10 13 13 12 12 11 9 7 7 7 7 8

GFSMW_sfc_30mbdewp_105.txt.gz
Dewpoint
44 49 52 55 57 57 58 58 58 59 59 58 57 57 60 61 61 60 61 61 61 60 59 59 59 59 57 58 56 52 49 47 45 44 44 45 46 48 49 52 51 51 51
47 50 54 55 57 57 56 56 58 58 58 57 58 58 58 59 62 61 61 61 60 59 58 57 57 58 58 57 54 50 49 47 49 43 44 42 43 45 46 49 50 51 52
48 51 53 55 56 55 55 55 57 57 58 58 58 57 58 59 58 61 60 60 59 59 56 56 55 57 57 55 52 50 49 47 50 45 44 43 41 43 44 44 46 49 51
49 51 53 55 55 55 55 55 57 57 58 58 57 57 56 55 58 57 59 59 59 59 56 56 54 55 57 55 53 51 50 49 48 48 49 48 48 42 41 44 45 46 47
49 51 52 55 55 55 55 55 56 57 57 57 57 57 57 57 58 58 59 59 59 58 56 56 55 54 55 54 53 53 52 50 49 47 47 47 48 49 46 42 42 45 45
48 50 52 54 54 55 55 55 56 57 56 56 57 57 56 57 57 58 57 58 58 57 55 56 56 55 55 54 54 54 54 54 52 49 48 46 45 46 47 46 46 43 44
47 50 52 53 54 54 54 55 56 56 56 56 57 56 57 56 56 57 57 56 56 56 56 56 56 56 57 56 55 54 53 54 54 51 49 49 48 48 47 46 46 46 48
47 49 50 52 54 54 54 55 54 54 56 56 56 56 56 56 56 56 56 56 55 56 56 55 56 57 57 57 56 55 55 55 54 53 53 53 51 51 51 50 48 47 48
47 49 49 52 54 54 54 54 54 54 55 55 56 55 56 56 56 56 55 55 55 56 55 54 54 56 57 56 55 55 54 55 55 54 54 54 54 54 54 53 52 51 48
44 48 48 51 54 54 54 54 54 53 55 55 55 55 55 56 56 56 55 55 55 55 55 54 53 55 56 55 55 54 54 53 53 54 54 54 54 54 55 54 54 53 52
42 47 48 50 53 54 54 54 54 52 54 55 55 55 54 55 56 55 55 55 55 54 55 54 53 54 55 55 54 53 54 54 54 54 54 54 54 54 55 56 55 55 54
39 46 48 50 53 53 53 54 53 53 53 55 55 54 54 53 53 55 55 55 55 56 55 55 54 54 53 53 53 53 53 53 52 52 52 53 54 54 54 55 55 55 55
31 42 48 50 52 53 53 53 53 53 53 54 55 54 54 54 52 53 54 55 55 54 56 55 54 54 53 53 53 53 53 52 53 53 54 53 52 53 50 50 51 50 52
31 36 47 48 51 52 54 53 53 53 54 54 53 53 54 54 53 53 52 52 55 55 54 55 55 55 54 54 53 53 53 53 50 45 42 40 40 40 42 41 40 41 43
24 27 38 45 50 51 52 53 53 53 54 54 54 53 54 54 54 54 54 54 54 54 54 54 54 54 52 48 51 53 52 47 41 38 36 36 35 34 35 35 34 36 37
26 24 28 39 46 50 51 52 52 52 53 53 54 54 54 54 54 53 53 54 54 54 52 46 45 42 39 41 47 45 42 38 36 34 34 34 34 33 33 32 32 32 32
45 38 26 26 41 51 50 52 52 52 52 52 53 54 54 54 54 54 54 53 48 43 40 38 37 35 35 36 36 36 35 34 33 32 32 31 32 32 32 31 30 30 30
47 48 47 46 40 48 50 51 52 52 52 51 52 54 54 54 54 51 44 41 39 37 35 34 33 33 33 33 33 33 31 30 30 30 29 29 30 31 32 31 30 29 30
47 49 49 48 47 49 53 54 52 52 52 51 51 52 53 47 43 40 37 36 34 33 32 32 32 31 31 31 30 29 29 28 28 29 29 29 29 28 26 25 23 24 26
46 48 47 45 44 44 51 52 52 51 47 45 44 44 42 40 37 35 33 33 32 31 30 30 31 32 31 32 31 29 28 27 26 27 28 28 25 23 23 23 23 23 24
43 44 42 41 41 41 42 42 41 40 40 39 38 37 36 35 33 32 32 30 29 28 28 27 28 29 30 30 30 30 28 26 24 24 25 26 24 23 25 25 23 20 20
40 40 39 39 39 39 40 39 37 37 37 37 36 35 34 33 32 31 30 29 28 27 26 26 26 27 27 27 26 25 25 24 24 24 26 25 23 23 21 19 17 17 16
37 37 37 37 37 37 37 36 36 37 36 35 34 33 32 31 30 29 28 28 27 27 26 25 24 24 23 23 23 25 26 25 21 20 19 17 17 16 15 13 12 13 12
35 36 36 35 34 34 34 34 34 33 32 31 30 30 30 29 30 30 29 28 26 25 23 21 20 19 19 20 20 20 19 22 19 17 16 14 13 12 11 11 11 11 9
36 36 35 34 33 33 32 32 32 30 28 27 26 25 25 24 23 24 23 22 24 24 21 21 20 18 17 18 18 18 18 18 16 14 12 11 10 9 9 8 8 8 8
30 32 34 33 33 33 32 31 30 29 27 25 24 23 22 21 20 19 20 23 22 22 21 21 20 20 17 14 13 14 15 14 11 10 8 7 7 8 7 7 7 7 8

GFSMW_sfc_30mbdewp_108.txt.gz
Dewpoint
32 50 55 56 57 57 57 58 58 59 58 58 59 60 59 60 61 62 62 62 62 61 60 56 56 54 53 50 54 54 51 49 49 47 46 47 51 52 52 53 52 52 53
48 52 55 56 56 57 57 57 57 59 58 57 57 58 60 60 60 61 62 62 62 61 60 58 56 55 53 54 55 53 50 48 47 46 44 42 43 48 49 52 52 51 52
48 52 55 56 56 56 56 57 58 58 58 57 57 57 58 59 60 60 60 61 61 60 60 59 57 57 56 56 54 52 50 47 47 45 43 42 40 42 44 47 51 51 51
48 52 54 55 56 56 56 56 58 57 57 58 57 56 55 56 57 60 59 61 60 60 59 59 58 58 57 56 55 52 50 47 45 47 47 46 44 42 41 44 45 48 51
44 51 53 54 55 55 55 56 57 57 58 58 57 56 55 56 56 57 59 59 60 59 58 57 58 58 58 56 54 52 51 49 49 46 48 47 48 48 43 41 42 44 45
40 50 53 55 54 55 55 56 57 57 57 57 57 57 56 57 56 57 57 58 59 59 57 57 57 58 57 55 55 55 54 53 51 49 48 47 46 46 47 45 44 42 43
37 51 53 54 54 54 55 55 56 56 56 56 57 57 57 57 57 57 58 57 58 58 57 57 57 57 58 58 57 56 55 55 54 52 51 49 47 47 47 46 45 45 46
38 51 53 53 53 54 54 55 56 56 56 56 57 57 56 56 56 58 58 57 57 57 57 57 57 57 57 57 57 56 56 55 55 54 53 52 50 49 48 47 46 45 47
48 51 53 53 53 53 54 55 55 55 55 56 57 56 56 56 56 56 57 57 57 58 57 57 57 57 57 56 56 55 55 54 54 54 55 54 53 53 52 51 50 48 46
48 51 52 53 54 54 54 55 54 55 55 56 56 56 56 56 56 55 56 56 56 56 56 56 56 57 57 56 56 55 55 54 54 55 54 54 54 54 55 54 54 53 51
39 49 50 54 54 54 54 54 53 53 54 54 56 55 56 56 56 55 55 55 56 56 55 55 55 55 56 56 56 55 54 54 53 52 52 52 53 53 53 54 54 53 53
35 45 49 53 53 53 54 54 53 53 53 53 55 55 55 56 55 55 55 55 54 55 55 54 54 54 55 55 55 54 54 53 52 53 53 53 53 54 54 54 54 54 54
37 42 50 51 53 53 53 53 53 52 53 55 54 55 54 54 55 55 55 55 54 54 54 54 53 53 53 54 54 54 53 53 53 53 52 52 50 52 48 47 47 46 47
38 39 49 52 53 53 53 53 53 53 53 54 55 54 54 53 54 55 55 55 55 55 54 54 53 53 54 53 53 53 53 53 49 43 40 38 38 39 41 39 39 40 41
38 41 47 50 53 53 53 53 53 53 53 53 53 54 54 54 52 54 54 54 55 55 55 55 54 54 53 52 53 53 53 46 39 37 36 35 35 34 34 34 34 35 35
47 48 44 49 52 53 54 54 53 53 53 53 53 53 54 54 53 52 53 52 54 55 52 52 46 43 42 45 48 47 42 38 36 34 33 33 33 33 32 32 31 31 31
45 47 47 46 47 52 54 54 54 54 54 54 54 53 54 54 53 53 54 52 47 43 41 39 37 36 36 38 38 37 36 34 33 32 32 32 32 32 31 31 31 31 30
45 47 46 45 44 45 53 54 54 54 54 54 54 54 54 53 54 51 45 42 39 38 36 34 33 33 33 33 33 32 31 30 30 30 30 30 30 31 30 29 28 28 28
44 45 44 43 43 44 49 54 54 54 54 53 54 54 54 50 46 42 38 36 35 34 33 32 32 31 31 31 30 29 29 28 28 29 28 27 27 28 28 27 24 22 23
42 42 41 41 41 43 45 53 53 53 50 48 48 50 46 43 39 36 35 34 33 32 32 31 31 31 30 31 29 28 27 26 27 27 27 27 28 27 26 24 20 20 21
39 39 39 39 39 41 42 41 41 41 42 42 41 41 39 37 35 33 33 31 30 30 29 29 30 30 31 31 29 27 26 26 25 25 25 27 25 21 20 19 18 16 15
37 37 37 37 37 40 41 39 38 39 39 38 36 35 35 34 33 31 30 30 29 28 27 27 27 28 28 29 28 28 28 26 25 25 25 24 21 17 17 14 11 10 12
36 36 36 35 35 36 38 37 38 37 36 35 34 33 32 31 31 30 29 28 27 26 25 24 22 22 24 28 28 26 25 24 23 22 20 18 16 14 13 11 9 11 11
36 35 34 33 33 33 33 34 34 34 33 32 31 31 30 30 29 29 28 27 25 23 22 21 20 20 21 22 24 23 22 20 18 16 14 14 13 12 11 9 9 10 9
35 34 33 32 31 31 31 31 30 29 28 28 27 26 25 24 23 24 23 23 24 22 20 20 20 19 20 22 23 21 19 17 15 14 13 11 9 8 8 8 8 8 7
30 31 32 32 31 30 29 29 29 27 25 24 23 22 22 21 20 20 21 24 24 24 23 22 21 23 24 24 21 18 16 15 14 10 9 8 8 8 7 7 7 7 7

GFSMW_sfc_30mbdewp_111.txt.gz
Dewpoint
29 33 51 56 58 58 58 58 59 59 59 59 59 58 58 60 60 61 60 60 61 60 58 55 54 51 47 47 50 51 49 50 50 49 49 50 52 52 53 53 53 53 53
29 43 53 56 56 57 57 58 58 58 58 59 59 59 59 60 61 61 62 61 61 60 58 54 54 51 47 48 51 51 51 49 49 47 46 45 47 50 51 52 52 52 52
28 38 54 55 56 56 56 57 58 58 57 57 58 58 59 60 59 60 61 62 62 61 58 55 54 51 50 48 52 52 51 48 48 47 45 42 42 45 46 50 52 51 51
28 42 54 55 55 56 56 57 57 58 57 57 57 58 57 57 58 59 60 61 62 61 61 57 55 52 52 48 52 53 52 50 47 47 45 44 44 41 41 45 47 51 51
30 44 53 55 55 56 56 56 57 57 57 57 56 56 56 56 58 59 59 60 61 61 61 59 56 54 52 54 52 54 52 49 48 46 47 47 48 45 42 41 42 45 47
34 39 50 55 55 55 55 56 56 56 57 57 56 55 54 55 55 57 58 59 60 60 60 60 58 57 56 56 54 54 52 50 48 48 47 47 46 47 46 45 44 42 43
40 39 47 54 54 54 55 56 56 55 56 57 56 56 55 56 55 55 56 57 59 59 59 59 59 59 58 57 55 54 53 52 50 50 49 49 47 48 48 47 46 46 46
41 45 48 53 54 54 54 55 56 56 55 56 56 56 56 56 56 56 56 57 57 59 58 58 58 59 58 56 56 55 55 55 54 53 53 52 51 51 49 47 47 46 46
41 43 51 53 54 54 54 55 55 55 55 55 56 56 56 56 57 57 58 58 59 58 58 58 58 58 58 57 57 56 56 56 56 55 55 54 54 54 53 51 49 47 47
41 42 53 53 54 54 54 55 55 55 55 55 56 56 56 56 56 57 57 57 58 58 57 57 57 58 58 57 57 56 56 55 56 55 54 54 55 55 55 54 53 52 50
44 43 45 53 53 54 54 54 55 55 55 55 56 56 56 56 56 56 56 56 57 57 57 57 56 56 56 57 56 56 55 55 54 55 54 53 54 54 54 55 54 54 53
45 41 40 53 53 54 54 54 54 54 54 55 55 55 56 56 55 55 55 56 56 56 56 56 56 56 56 55 55 55 55 55 54 54 54 53 53 53 53 54 53 53 53
44 42 41 53 54 54 54 54 53 53 54 54 54 55 55 56 55 55 55 55 55 55 55 55 55 55 55 55 55 55 54 54 54 53 53 51 50 51 48 47 48 47 46
44 46 48 53 54 54 54 53 53 53 53 53 53 54 55 55 55 55 55 54 55 55 54 54 55 55 55 55 55 54 54 52 47 42 40 39 40 41 41 40 39 40 40
47 47 47 52 54 54 54 54 53 53 53 54 53 52 54 54 55 55 55 55 54 54 54 54 53 53 53 53 54 53 52 45 39 36 35 35 35 34 35 34 34 35 34
46 46 46 46 47 50 54 54 53 53 53 54 54 53 53 53 54 54 54 55 55 54 54 52 50 49 47 47 51 49 44 39 36 34 33 33 33 32 32 31 31 31 30
45 46 45 45 45 45 47 54 54 54 53 53 53 54 54 53 52 53 53 53 50 47 45 43 42 41 40 42 42 40 37 35 33 32 32 31 32 31 30 30 30 30 29
44 44 43 43 43 43 46 50 55 54 54 53 53 53 54 53 53 52 48 45 42 40 38 36 35 35 35 36 35 33 32 31 31 31 31 30 30 29 28 26 27 27 26
42 42 41 41 42 42 45 52 55 55 54 54 54 53 53 52 48 44 40 38 37 35 34 33 33 32 32 32 32 31 29 28 27 27 28 28 29 30 28 24 23 23 21
39 39 39 39 40 42 45 49 53 54 54 54 54 54 50 46 42 39 37 35 34 32 32 31 31 31 30 31 31 29 27 26 26 27 28 28 27 25 24 22 20 17 15
37 38 38 37 38 41 43 43 43 42 42 44 46 46 44 41 38 36 35 34 32 31 30 30 30 30 30 30 30 28 26 25 25 24 24 25 23 21 19 18 17 15 13
36 36 36 35 36 38 39 40 39 40 39 38 37 37 36 35 34 33 32 31 30 29 28 27 27 28 29 30 29 28 28 27 24 23 23 23 20 17 15 14 12 11 10
36 35 34 34 33 35 36 35 37 38 35 34 33 32 32 32 32 31 30 29 28 27 26 26 25 26 27 27 28 27 26 24 23 22 21 19 17 15 15 14 12 10 9
35 33 33 32 31 31 32 33 34 34 33 31 31 30 29 28 28 28 29 27 25 24 24 23 22 23 23 23 23 23 23 22 20 18 17 16 14 12 11 10 9 9 8
33 33 31 30 30 30 29 29 29 28 27 25 25 24 23 23 23 23 22 22 23 22 22 22 22 21 21 22 21 20 19 18 17 16 14 12 10 9 8 7 6 6 6
30 31 31 30 29 28 28 27 26 26 25 23 22 22 22 22 22 21 22 24 24 25 25 26 24 25 24 23 22 21 19 18 15 12 10 9 8 7 6 5 5 6 5

GFSMW_sfc_30mbdewp_114.txt.gz
Dewpoint
24 28 33 46 55 58 59 59 59 59 59 59 59 59 58 59 60 60 61 60 60 60 60 57 56 54 51 50 50 49 49 50 52 51 50 50 52 52 53 53 53 53 53
25 25 32 52 56 57 58 59 59 58 59 59 59 58 58 59 60 60 60 60 61 59 58 57 55 52 49 49 49 49 49 50 51 49 48 48 49 51 52 52 53 53 53
22 25 30 49 55 57 58 58 58 58 59 58 58 59 59 60 59 60 59 60 60 59 57 56 55 52 48 47 48 49 48 48 49 50 47 45 46 48 49 51 52 52 52
34 31 30 47 54 56 57 57 58 58 57 58 58 58 57 57 59 59 60 60 61 59 57 55 54 51 47 47 48 50 49 49 48 48 46 45 45 45 44 46 50 52 51
40 40 40 48 54 56 56 57 57 57 57 57 58 57 57 57 58 60 60 60 60 60 58 56 55 52 50 47 48 51 50 50 49 47 46 46 46 45 42 42 45 46 50
41 41 41 47 54 56 56 56 56 57 57 57 56 57 56 57 58 58 58 59 60 60 60 57 56 53 52 50 50 53 53 51 50 48 46 45 44 45 44 43 43 43 44
41 41 42 48 55 55 55 56 56 56 56 56 56 55 55 56 57 58 58 59 59 59 60 59 57 56 53 54 51 54 53 51 50 49 47 47 47 48 48 47 46 45 47
42 42 44 45 53 54 54 55 55 56 56 56 56 55 55 55 55 56 57 58 59 59 60 60 58 57 54 56 54 54 53 52 51 50 50 50 50 50 49 48 47 46 47
42 42 43 43 53 54 54 55 55 55 55 56 56 56 56 56 55 56 56 56 57 58 60 60 60 58 57 57 55 54 53 53 53 53 53 53 54 54 54 53 51 49 46
41 42 42 43 44 54 54 55 55 54 55 55 56 56 56 56 56 57 57 57 58 58 58 59 60 59 58 57 56 55 55 54 54 54 54 54 54 54 54 54 54 52 50
43 44 43 44 45 54 54 54 55 54 54 55 55 56 56 56 56 56 56 57 58 58 58 58 58 58 57 57 56 55 55 54 54 55 54 54 55 54 55 55 54 54 53
44 46 47 48 51 54 54 54 55 54 54 54 55 56 56 56 56 56 56 57 57 57 57 57 58 57 57 57 56 55 55 55 54 54 54 54 54 54 54 54 53 54 53
42 43 48 48 53 54 54 54 54 53 53 55 55 55 55 55 55 55 56 56 56 56 56 56 56 57 57 57 56 56 55 55 55 54 54 54 54 53 52 52 51 49 47
42 44 47 47 49 54 54 53 54 54 54 54 55 54 55 55 55 55 55 55 55 55 55 55 55 55 56 56 56 55 55 51 48 46 45 45 47 48 46 44 43 42 40
41 42 47 46 46 48 54 54 54 53 53 54 53 53 55 56 55 55 55 55 55 55 55 55 55 55 55 55 55 53 48 43 39 37 36 36 37 37 37 37 37 37 35
41 44 47 46 45 45 46 54 54 53 54 53 53 52 54 55 55 54 54 54 54 54 54 53 52 51 51 53 52 47 42 39 36 34 33 33 32 32 31 31 31 32 31
44 45 45 44 44 44 45 46 54 53 53 53 53 52 54 53 54 54 54 54 50 49 47 46 46 45 45 47 45 41 38 36 34 32 31 31 31 30 30 29 27 27 26
42 42 42 41 41 43 44 46 48 54 53 53 53 53 53 53 53 53 48 45 43 42 40 39 38 37 36 38 37 35 34 33 32 32 31 30 29 29 27 25 24 23 22
39 39 40 39 40 41 42 45 48 54 53 53 53 54 54 52 49 46 43 40 38 36 35 34 34 33 32 33 33 32 30 29 29 30 29 29 28 29 26 23 20 19 19
37 37 38 38 38 38 41 45 53 54 53 53 53 53 51 49 46 42 39 36 35 33 32 31 31 32 31 32 31 30 29 27 26 26 27 26 26 25 23 21 19 17 15
36 37 37 36 35 37 40 42 42 43 44 48 49 49 47 44 40 37 36 34 32 31 30 29 30 30 30 30 30 29 27 25 23 22 22 23 23 21 20 19 17 16 15
35 35 35 34 33 35 37 38 37 37 38 39 39 38 37 37 36 34 33 32 31 29 28 28 28 29 30 30 29 27 25 24 21 20 21 22 20 19 18 17 16 15 15
35 33 33 32 31 32 33 34 35 35 34 34 33 33 33 33 32 31 30 29 29 28 27 26 26 26 27 27 27 25 24 22 21 21 21 19 18 16 16 14 13 12 11
33 32 32 30 30 30 30 31 32 32 30 29 29 29 30 29 29 29 29 28 28 27 25 23 21 22 23 23 24 23 23 22 19 18 16 15 15 13 12 12 11 10 9
31 31 30 29 29 29 28 28 28 28 26 25 25 25 24 24 24 24 24 24 24 24 23 22 22 20 19 20 20 19 18 17 16 15 14 12 11 10 9 8 7 7 5
29 28 28 28 27 27 26 26 27 26 25 25 24 24 23 23 23 23 24 27 26 26 25 24 23 23 23 23 22 21 19 18 15 11 9 9 8 7 5 5 5 4 3

GFSMW_sfc_30mbdewp_117.txt.gz
Dewpoint
24 27 30 33 38 51 54 57 59 60 60 60 59 58 57 57 58 60 60 60 61 61 62 61 59 58 56 55 55 53 52 52 53 52 52 52 53 54 54 54 53 53 54
25 33 37 37 44 52 57 58 59 59 60 60 59 59 58 59 58 60 60 61 61 60 61 61 58 57 56 55 53 52 51 52 53 50 50 49 51 52 53 53 53 53 53
38 40 42 43 47 52 57 58 59 59 60 60 60 59 59 59 59 60 60 60 60 60 60 59 58 56 54 53 53 52 51 50 52 52 49 48 47 50 52 53 53 53 53
42 41 42 42 47 50 57 58 59 59 59 59 58 58 57 56 58 60 59 60 59 58 58 58 57 54 53 52 53 52 51 51 51 52 49 50 49 47 47 50 52 53 53
42 41 43 44 48 53 56 58 59 58 58 59 58 58 57 57 59 60 59 59 59 58 57 57 56 53 52 51 51 52 51 51 51 51 48 48 48 49 47 46 48 51 52
43 42 43 43 46 56 57 58 58 57 57 58 58 57 57 57 58 59 59 58 59 58 58 57 55 54 51 50 50 51 52 52 52 51 49 47 45 45 45 45 47 48 49
39 40 42 43 44 52 55 56 57 56 57 57 57 57 57 58 57 58 59 58 58 59 58 57 56 54 53 51 50 51 52 52 52 52 50 49 47 48 48 48 47 47 48
38 40 42 43 44 46 54 55 55 55 56 57 57 58 58 58 58 59 59 58 59 59 59 58 57 56 54 51 51 52 52 52 53 52 51 50 50 50 50 48 48 47 48
40 42 44 45 48 47 48 54 55 55 56 56 57 57 57 56 56 57 58 59 59 59 60 59 58 57 55 55 52 52 52 53 53 52 52 51 53 54 53 52 51 49 46
41 43 46 47 48 52 50 55 55 55 56 56 57 57 57 56 56 56 56 56 57 58 60 60 59 58 56 55 53 52 53 53 53 53 52 53 55 55 54 54 53 52 50
42 42 44 46 46 50 54 55 55 55 56 56 56 56 56 56 56 56 57 57 57 58 58 58 59 58 57 56 55 53 53 52 53 53 52 53 54 54 54 54 54 53 53
43 42 43 43 45 45 53 55 55 55 55 55 56 55 56 56 55 56 56 57 58 58 58 58 58 58 58 57 56 54 53 52 53 53 53 54 54 54 54 54 53 53 54
41 41 41 43 45 45 47 55 55 54 54 55 55 55 55 55 55 56 56 57 57 57 57 57 57 57 58 57 56 55 54 54 53 53 53 53 54 53 54 54 54 53 52
41 41 42 44 46 46 46 49 55 55 54 55 54 54 55 55 55 56 56 56 56 56 56 56 57 57 57 57 56 56 55 55 55 54 54 54 54 53 52 51 49 47 45
40 41 44 46 47 45 45 46 53 55 54 54 54 54 55 56 55 55 55 56 56 56 56 55 55 56 56 56 56 54 48 45 42 40 39 39 39 39 40 42 41 41 39
44 45 46 46 44 44 44 44 47 54 54 54 54 54 55 55 55 55 55 55 55 55 54 54 53 53 51 49 47 46 42 39 37 34 33 33 33 32 31 30 29 32 33
43 42 42 43 42 42 43 44 45 48 53 53 54 54 55 55 55 55 54 54 52 50 48 47 46 45 44 44 42 39 38 35 33 32 31 30 30 29 27 26 25 24 24
40 39 39 40 40 40 42 43 44 47 53 53 53 53 54 54 54 54 50 48 46 45 43 40 39 38 37 38 36 35 34 32 32 31 30 29 28 26 25 23 22 21 20
37 37 38 39 38 39 39 41 44 49 53 53 53 52 53 53 52 48 45 42 40 37 36 35 34 33 33 34 34 33 31 29 29 29 29 28 27 26 24 21 20 19 19
37 37 37 37 36 36 38 41 41 44 53 53 53 53 53 51 47 43 40 37 35 33 32 32 32 32 31 33 32 31 30 27 26 27 27 26 25 23 21 19 18 16 13
36 35 35 34 34 34 36 37 37 36 38 46 53 52 50 46 42 39 36 34 32 31 30 30 30 30 31 31 31 29 27 25 23 23 23 25 23 21 19 18 16 14 15
34 33 33 33 32 32 33 33 33 35 36 38 41 41 40 39 37 35 34 33 31 30 29 28 28 29 29 29 28 26 25 24 21 21 22 22 20 19 18 17 17 16 14
33 32 32 31 30 30 30 30 31 32 33 34 33 34 34 34 34 33 32 31 30 29 28 27 26 25 26 26 26 25 23 22 21 21 21 19 18 17 16 15 14 13 12
32 31 30 29 28 28 28 29 29 30 29 29 30 31 31 31 31 31 31 30 29 28 26 25 23 23 23 23 23 23 22 21 20 18 16 15 14 14 13 12 12 10 7
28 28 28 26 26 26 26 27 28 28 27 27 27 27 27 26 26 26 27 27 28 27 24 23 22 21 20 21 20 18 17 16 16 15 14 13 12 10 10 8 5 4 3
25 25 25 24 24 24 24 25 26 27 26 25 25 25 25 26 26 25 25 27 27 26 25 24 22 22 22 22 21 20 19 18 16 14 11 10 9 8 7 6 4 3 3